M I D A S
Marine Information and Data Acquisition System
Tripno 1660 of the Zeeleeuw from 2009-03-19 07:30:53 to 2009-03-19 13:03:15
Back to CruiseResearch ActivitiesStationsMapUnderway DataData graphs

EquipmentUnitsComment
TimeDGPSUTC
LatitudeDGPSDM.mWGS84
LongitudeDGPSDM.mWGS84
TemperatureSBE03/SBE38deg celciusITS90
ConductivitySBE21S/mITS90
SalinitySBE21 Practical Salinity Units
ChlorophylAChelsea fluorimeterg/lCalibrated in Aceton
Missing or incorrect values are displayed as -999
Sea surface data collected by the RV Zeeleeuw from 2009-03-19 07:24:05 to 2009-03-19 13:13:15
                                                                                    Next 1000 lines
Time Latitude Longitude Temperature Conductivity Salinity ChlorophylA
2009-03-19 07:24:14 51°13.662 2°55.955 -999 0.10272 0.570369 -1.279161
2009-03-19 07:24:19 51°13.663 2°55.952 -999 0.10272 0.570369 -1.279161
2009-03-19 07:24:24 51°13.663 2°55.949 -999 0.10272 0.570369 -1.279161
2009-03-19 07:24:29 51°13.664 2°55.946 -999 0.10272 0.570379 -1.244337
2009-03-19 07:24:34 51°13.665 2°55.943 -999 0.10272 0.57039 -1.279161
2009-03-19 07:24:40 51°13.666 2°55.938 -999 0.10272 0.5704 -1.279161
2009-03-19 07:24:46 51°13.668 2°55.932 -999 0.10272 0.5704 -1.279161
2009-03-19 07:24:52 51°13.669 2°55.927 -999 0.10272 0.5704 -1.279161
2009-03-19 07:24:57 51°13.671 2°55.922 -999 0.10272 0.57041 -1.279161
2009-03-19 07:25:03 51°13.672 2°55.915 -999 0.10272 0.57042 -1.244337
2009-03-19 07:25:08 51°13.674 2°55.91 -999 0.10272 0.57043 -1.279161
2009-03-19 07:25:13 51°13.675 2°55.904 -999 0.10272 0.57043 -1.244337
2009-03-19 07:25:18 51°13.676 2°55.898 -999 0.10272 0.57043 -1.279161
2009-03-19 07:25:23 51°13.678 2°55.892 -999 0.10272 0.57043 -1.279161
2009-03-19 07:25:28 51°13.679 2°55.886 -999 0.10272 0.570441 -1.279161
2009-03-19 07:25:33 51°13.681 2°55.88 -999 0.10272 0.570441 -1.279161
2009-03-19 07:25:37 51°13.682 2°55.875 -999 0.10272 0.570451 -1.279161
2009-03-19 07:25:43 51°13.683 2°55.868 -999 0.10272 0.570461 -1.279161
2009-03-19 07:25:48 51°13.685 2°55.861 -999 0.10272 0.570461 -1.279161
2009-03-19 07:25:53 51°13.686 2°55.854 -999 0.10272 0.570471 -1.279161
2009-03-19 07:25:57 51°13.687 2°55.849 -999 0.10272 0.570471 -1.279161
2009-03-19 07:26:03 51°13.689 2°55.84 -999 0.10272 0.570471 -1.279161
2009-03-19 07:26:08 51°13.69 2°55.833 -999 0.10272 0.570471 -1.279161
2009-03-19 07:26:13 51°13.692 2°55.826 -999 0.10272 0.570482 -1.279161
2009-03-19 07:26:17 51°13.693 2°55.821 -999 0.10272 0.570482 -1.279161
2009-03-19 07:26:22 51°13.694 2°55.814 -999 0.10272 0.570482 -1.279161
2009-03-19 07:26:28 51°13.695 2°55.806 -999 0.10272 0.570492 -1.279161
2009-03-19 07:26:33 51°13.696 2°55.8 -999 0.10272 0.570492 -1.279161
2009-03-19 07:26:38 51°13.698 2°55.794 -999 0.10272 0.570502 -1.279161
2009-03-19 07:26:42 51°13.698 2°55.79 -999 0.10272 0.570512 -1.279161
2009-03-19 07:26:47 51°13.699 2°55.785 -999 0.10272 0.570512 -1.279161
2009-03-19 07:26:53 51°13.7 2°55.779 -999 0.10272 0.570522 -1.279161
2009-03-19 07:26:57 51°13.701 2°55.775 -999 0.10272 0.570533 -1.279161
2009-03-19 07:27:02 51°13.701 2°55.771 -999 0.10272 0.570533 -1.279161
2009-03-19 07:27:07 51°13.702 2°55.767 -999 0.10272 0.570543 -1.279161
2009-03-19 07:27:13 51°13.702 2°55.763 -999 0.10272 0.570533 -1.279161
2009-03-19 07:27:18 51°13.702 2°55.76 -999 0.10272 0.570543 -1.279161
2009-03-19 07:27:22 51°13.703 2°55.758 -999 0.10272 0.570543 -1.279161
2009-03-19 07:27:27 51°13.703 2°55.756 -999 0.10272 0.570543 -1.279161
2009-03-19 07:27:32 51°13.703 2°55.755 -999 0.10272 0.570553 -1.279161
2009-03-19 07:27:37 51°13.703 2°55.753 -999 0.10272 0.570563 -1.279161
2009-03-19 07:27:42 51°13.704 2°55.753 -999 0.10272 0.570574 -1.279161
2009-03-19 07:27:47 51°13.704 2°55.752 -999 0.10272 0.570574 -1.279161
2009-03-19 07:27:52 51°13.704 2°55.752 -999 0.10272 0.570584 -1.279161
2009-03-19 07:27:57 51°13.704 2°55.753 -999 0.10272 0.570594 -1.279161
2009-03-19 07:28:01 51°13.704 2°55.754 -999 0.10272 0.570594 -1.244337
2009-03-19 07:28:06 51°13.705 2°55.754 -999 0.10272 0.570604 -1.279161
2009-03-19 07:28:11 51°13.706 2°55.755 -999 0.10272 0.570615 -1.279161
2009-03-19 07:28:16 51°13.706 2°55.757 -999 0.10272 0.570615 -1.279161
2009-03-19 07:28:21 51°13.707 2°55.758 -999 0.10272 0.570615 -1.279161
2009-03-19 07:28:26 51°13.708 2°55.759 -999 0.10272 0.570615 -1.279161
2009-03-19 07:28:30 51°13.709 2°55.761 -999 0.10272 0.570625 -1.279161
2009-03-19 07:28:35 51°13.71 2°55.762 -999 0.10272 0.570635 -1.279161
2009-03-19 07:28:40 51°13.711 2°55.763 -999 0.10272 0.570635 -1.279161
2009-03-19 07:28:45 51°13.712 2°55.763 -999 0.10272 0.570635 -1.279161
2009-03-19 07:28:50 51°13.712 2°55.763 -999 0.10272 0.570645 -1.244337
2009-03-19 07:28:55 51°13.711 2°55.763 -999 0.10272 0.570635 -1.279161
2009-03-19 07:29:00 51°13.71 2°55.762 -999 0.10272 0.570625 -1.279161
2009-03-19 07:29:05 51°13.709 2°55.762 -999 0.10272 0.570615 -1.244337
2009-03-19 07:29:09 51°13.708 2°55.762 -999 0.10272 0.570625 -1.279161
2009-03-19 07:29:14 51°13.707 2°55.761 -999 0.10272 0.570645 -1.244337
2009-03-19 07:29:19 51°13.706 2°55.761 -999 0.10272 0.570645 -1.244337
2009-03-19 07:29:24 51°13.706 2°55.76 -999 0.10272 0.570655 -1.279161
2009-03-19 07:29:29 51°13.705 2°55.76 -999 0.10272 0.570666 -1.279161
2009-03-19 07:29:34 51°13.704 2°55.76 -999 0.10272 0.570686 -1.279161
2009-03-19 07:29:39 51°13.704 2°55.76 -999 0.10272 0.570696 -1.279161
2009-03-19 07:29:44 51°13.704 2°55.759 -999 0.10272 0.570696 -1.279161
2009-03-19 07:29:49 51°13.704 2°55.759 -999 0.10272 0.570707 -1.279161
2009-03-19 07:29:54 51°13.704 2°55.759 -999 0.10272 0.570707 -1.279161
2009-03-19 07:29:58 51°13.705 2°55.759 -999 0.10272 0.570707 -1.279161
2009-03-19 07:30:04 51°13.706 2°55.758 -999 0.10272 0.570696 -1.279161
2009-03-19 07:30:09 51°13.707 2°55.758 -999 0.10272 0.570696 -1.279161
2009-03-19 07:30:14 51°13.708 2°55.757 -999 0.10272 0.570696 -1.279161
2009-03-19 07:30:19 51°13.709 2°55.756 -999 0.10272 0.570707 -1.279161
2009-03-19 07:30:25 51°13.711 2°55.755 -999 0.10272 0.570707 -1.279161
2009-03-19 07:30:29 51°13.713 2°55.753 -999 0.10272 0.570717 -1.279161
2009-03-19 07:30:34 51°13.715 2°55.751 -999 0.10272 0.570727 -1.279161
2009-03-19 07:30:39 51°13.717 2°55.748 -999 0.10272 0.570727 -1.279161
2009-03-19 07:30:45 51°13.721 2°55.745 -999 0.10272 0.570737 -1.244337
2009-03-19 07:30:49 51°13.723 2°55.743 -999 0.10272 0.570737 -1.244337
2009-03-19 07:30:54 51°13.726 2°55.739 -999 0.10272 0.570748 -1.279161
2009-03-19 07:30:59 51°13.729 2°55.735 -999 0.10272 0.570737 -1.279161
2009-03-19 07:31:04 51°13.732 2°55.731 -999 0.10272 0.570748 -1.279161
2009-03-19 07:31:09 51°13.735 2°55.727 -999 0.10272 0.570748 -1.279161
2009-03-19 07:31:14 51°13.739 2°55.722 -999 0.10272 0.570748 -1.279161
2009-03-19 07:31:19 51°13.743 2°55.718 -999 0.10272 0.570748 -1.279161
2009-03-19 07:31:24 51°13.746 2°55.713 -999 0.10272 0.570758 -1.279161
2009-03-19 07:31:29 51°13.75 2°55.708 -999 0.10272 0.570768 -1.279161
2009-03-19 07:31:33 51°13.754 2°55.704 -999 0.10272 0.570778 -1.279161
2009-03-19 07:31:39 51°13.759 2°55.699 -999 0.10272 0.570799 -1.279161
2009-03-19 07:31:44 51°13.763 2°55.694 -999 0.10272 0.570799 -1.279161
2009-03-19 07:31:49 51°13.768 2°55.689 -999 0.10272 0.570819 -1.279161
2009-03-19 07:31:54 51°13.773 2°55.685 -999 0.10272 0.570829 -1.279161
2009-03-19 07:31:58 51°13.777 2°55.681 -999 0.10272 0.57084 -1.279161
2009-03-19 07:32:04 51°13.783 2°55.676 -999 0.10272 0.57085 -1.279161
2009-03-19 07:32:09 51°13.788 2°55.671 -999 0.10272 0.57086 -1.279161
2009-03-19 07:32:14 51°13.793 2°55.667 -999 0.10272 0.57086 -1.279161
2009-03-19 07:32:19 51°13.798 2°55.662 -999 0.10272 0.57086 -1.279161
2009-03-19 07:32:24 51°13.804 2°55.658 -999 0.10272 0.57087 -1.279161
2009-03-19 07:32:29 51°13.809 2°55.653 -999 0.10272 0.57087 -1.279161
2009-03-19 07:32:33 51°13.813 2°55.649 -999 0.10272 0.57086 -1.244337
2009-03-19 07:32:39 51°13.82 2°55.644 -999 0.10272 0.57087 -1.279161
2009-03-19 07:32:44 51°13.826 2°55.641 -999 0.10272 0.57087 -1.279161
2009-03-19 07:32:49 51°13.831 2°55.637 -999 0.10272 0.57087 -1.279161
2009-03-19 07:32:53 51°13.836 2°55.635 -999 0.10272 0.57087 -1.279161
2009-03-19 07:32:59 51°13.842 2°55.632 -999 0.10272 0.570891 -1.279161
2009-03-19 07:33:04 51°13.848 2°55.63 -999 0.10272 0.570891 -1.279161
2009-03-19 07:33:09 51°13.853 2°55.629 -999 0.10272 0.570901 -1.279161
2009-03-19 07:33:14 51°13.858 2°55.628 -999 0.10272 0.570901 -1.279161
2009-03-19 07:33:19 51°13.863 2°55.628 -999 0.10272 0.570901 -1.279161
2009-03-19 07:33:24 51°13.867 2°55.628 -999 0.10272 0.570922 -1.279161
2009-03-19 07:33:29 51°13.872 2°55.628 -999 0.10272 0.570922 -1.279161
2009-03-19 07:33:34 51°13.876 2°55.629 -999 0.10272 0.570932 -1.279161
2009-03-19 07:33:39 51°13.881 2°55.63 -999 0.10272 0.570942 -1.279161
2009-03-19 07:33:44 51°13.885 2°55.631 -999 0.10272 0.570942 -1.279161
2009-03-19 07:33:49 51°13.889 2°55.632 -999 0.10272 0.570952 -1.279161
2009-03-19 07:33:54 51°13.893 2°55.633 -999 0.10272 0.570963 -1.279161
2009-03-19 07:33:59 51°13.897 2°55.634 -999 0.10272 0.570983 -1.279161
2009-03-19 07:34:04 51°13.901 2°55.635 -999 0.10272 0.570993 -1.279161
2009-03-19 07:34:09 51°13.904 2°55.636 -999 0.10272 0.571004 -1.279161
2009-03-19 07:34:13 51°13.907 2°55.636 -999 0.10272 0.571004 -1.279161
2009-03-19 07:34:19 51°13.911 2°55.637 -999 0.10272 0.571004 -1.279161
2009-03-19 07:34:24 51°13.915 2°55.637 -999 0.10272 0.571014 -1.279161
2009-03-19 07:34:29 51°13.918 2°55.637 -999 0.10272 0.571014 -1.279161
2009-03-19 07:34:34 51°13.921 2°55.636 -999 0.10272 0.571014 -1.279161
2009-03-19 07:34:39 51°13.924 2°55.636 -999 0.10272 0.571024 -1.279161
2009-03-19 07:34:44 51°13.928 2°55.635 -999 0.10272 0.571024 -1.279161
2009-03-19 07:34:49 51°13.93 2°55.634 -999 0.10272 0.571024 -1.279161
2009-03-19 07:34:54 51°13.933 2°55.633 -999 0.10272 0.571034 -1.279161
2009-03-19 07:34:59 51°13.936 2°55.632 -999 0.10272 0.571034 -1.279161
2009-03-19 07:35:04 51°13.938 2°55.631 -999 0.10272 0.571024 -1.244337
2009-03-19 07:35:09 51°13.941 2°55.63 -999 0.10272 0.571014 -1.244337
2009-03-19 07:35:13 51°13.942 2°55.629 -999 0.10272 0.571014 -1.244337
2009-03-19 07:35:19 51°13.945 2°55.627 -999 0.10272 0.571014 -1.279161
2009-03-19 07:35:24 51°13.947 2°55.626 -999 0.10272 0.571014 -1.279161
2009-03-19 07:35:29 51°13.949 2°55.625 -999 0.10272 0.571014 -1.279161
2009-03-19 07:35:34 51°13.95 2°55.623 -999 0.10272 0.571024 -1.279161
2009-03-19 07:35:39 51°13.952 2°55.622 -999 0.10272 0.571024 -1.244337
2009-03-19 07:35:44 51°13.954 2°55.621 -999 0.10272 0.571024 -1.244337
2009-03-19 07:35:49 51°13.956 2°55.619 -999 0.10272 0.571034 -1.279161
2009-03-19 07:35:54 51°13.957 2°55.617 -999 0.10272 0.571034 -1.279161
2009-03-19 07:35:59 51°13.959 2°55.616 -999 0.10272 0.571034 -1.279161
2009-03-19 07:36:04 51°13.962 2°55.614 -999 0.10272 0.571045 -1.279161
2009-03-19 07:36:09 51°13.964 2°55.613 -999 0.10272 0.571055 -1.279161
2009-03-19 07:36:14 51°13.966 2°55.61 -999 0.10272 0.571045 -1.279161
2009-03-19 07:36:18 51°13.968 2°55.608 -999 0.10272 0.571045 -1.279161
2009-03-19 07:36:24 51°13.973 2°55.604 -999 0.10272 0.571055 -1.279161
2009-03-19 07:36:29 51°13.977 2°55.6 -999 0.10272 0.571055 -1.279161
2009-03-19 07:36:34 51°13.982 2°55.595 -999 0.10272 0.571065 -1.279161
2009-03-19 07:36:39 51°13.988 2°55.59 -999 0.10272 0.571065 -1.279161
2009-03-19 07:36:44 51°13.995 2°55.584 -999 0.10272 0.571065 -1.279161
2009-03-19 07:36:49 51°14.003 2°55.577 -999 0.10272 0.571075 -1.279161
2009-03-19 07:36:54 51°14.01 2°55.568 -999 0.10272 0.571075 -1.279161
2009-03-19 07:36:58 51°14.017 2°55.561 -999 0.10272 0.571075 -1.279161
2009-03-19 07:37:04 51°14.026 2°55.549 -999 0.10272 0.571065 -1.279161
2009-03-19 07:37:09 51°14.035 2°55.539 -999 0.10272 0.571075 -1.279161
2009-03-19 07:37:14 51°14.044 2°55.529 -999 0.10272 0.571075 -1.279161
2009-03-19 07:37:19 51°14.053 2°55.518 -999 0.10272 0.571075 -1.279161
2009-03-19 07:37:24 51°14.063 2°55.508 -999 0.10272 0.571075 -1.279161
2009-03-19 07:37:29 51°14.073 2°55.497 -999 0.10272 0.571096 -1.279161
2009-03-19 07:37:34 51°14.083 2°55.486 -999 0.10272 0.571116 -1.279161
2009-03-19 07:37:39 51°14.094 2°55.475 -999 0.10272 0.571127 -1.279161
2009-03-19 07:37:45 51°14.106 2°55.462 -999 0.10272 0.571116 -1.279161
2009-03-19 07:37:50 51°14.117 2°55.45 -999 0.10272 0.571116 -1.279161
2009-03-19 07:37:55 51°14.127 2°55.437 -999 0.10272 0.571075 -1.279161
2009-03-19 07:38:00 51°14.138 2°55.425 -999 0.10272 0.571045 -1.279161
2009-03-19 07:38:05 51°14.149 2°55.413 -999 0.10272 0.571045 -1.279161
2009-03-19 07:38:10 51°14.159 2°55.4 -999 0.10272 0.571055 -1.244337
2009-03-19 07:38:15 51°14.17 2°55.387 -999 0.10272 0.571086 -1.279161
2009-03-19 07:38:19 51°14.179 2°55.376 -999 0.10272 0.571086 -1.279161
2009-03-19 07:38:25 51°14.191 2°55.36 -999 0.10272 0.571127 -1.279161
2009-03-19 07:38:29 51°14.2 2°55.349 -999 0.10272 0.571157 -1.279161
2009-03-19 07:38:35 51°14.212 2°55.332 -999 0.10272 0.571188 -1.244337
2009-03-19 07:38:40 51°14.223 2°55.317 -999 0.10272 0.571209 -1.279161
2009-03-19 07:38:45 51°14.233 2°55.302 -999 0.10272 0.571209 -1.279161
2009-03-19 07:38:50 51°14.244 2°55.286 -999 0.10272 0.571229 -1.279161
2009-03-19 07:38:55 51°14.253 2°55.27 -999 0.10272 0.571219 -1.279161
2009-03-19 07:39:00 51°14.263 2°55.253 -999 0.10272 0.571209 -1.279161
2009-03-19 07:39:06 51°14.275 2°55.232 -999 0.10272 0.571209 -1.279161
2009-03-19 07:39:10 51°14.282 2°55.218 -999 0.10272 0.571198 -1.244337
2009-03-19 07:39:15 51°14.291 2°55.199 -999 0.10272 0.571198 -1.244337
2009-03-19 07:39:20 51°14.3 2°55.181 -999 0.10272 0.571188 -1.279161
2009-03-19 07:39:25 51°14.309 2°55.161 -999 0.10272 0.571198 -1.279161
2009-03-19 07:39:30 51°14.317 2°55.142 -999 0.10272 0.571198 -1.279161
2009-03-19 07:39:35 51°14.326 2°55.122 -999 0.10272 0.571198 -1.279161
2009-03-19 07:39:39 51°14.333 2°55.106 -999 0.10272 0.571219 -1.279161
2009-03-19 07:39:45 51°14.343 2°55.081 -999 0.10272 0.571239 -1.279161
2009-03-19 07:39:49 51°14.349 2°55.064 -999 0.10272 0.571239 -1.279161
2009-03-19 07:39:54 51°14.358 2°55.042 -999 0.10272 0.57125 -1.279161
2009-03-19 07:39:59 51°14.366 2°55.02 -999 0.10272 0.57125 -1.279161
2009-03-19 07:40:04 51°14.374 2°54.998 -999 0.10272 0.571239 -1.279161
2009-03-19 07:40:09 51°14.383 2°54.977 -999 0.10272 0.571239 -1.279161
2009-03-19 07:40:13 51°14.39 2°54.959 -999 0.10272 0.571239 -1.279161
2009-03-19 07:40:19 51°14.401 2°54.933 -999 0.10272 0.571229 -1.279161
2009-03-19 07:40:24 51°14.41 2°54.912 -999 0.10272 0.571239 -1.279161
2009-03-19 07:40:29 51°14.421 2°54.891 -999 0.10272 0.57125 -1.279161
2009-03-19 07:40:34 51°14.431 2°54.869 -999 0.10272 0.57127 -1.279161
2009-03-19 07:40:39 51°14.442 2°54.849 -999 0.10272 0.571301 -1.244337
2009-03-19 07:40:44 51°14.452 2°54.827 -999 0.10272 0.571301 -1.244337
2009-03-19 07:40:49 51°14.464 2°54.807 -999 0.10272 0.571301 -1.279161
2009-03-19 07:40:54 51°14.475 2°54.787 -999 0.10272 0.571311 -1.279161
2009-03-19 07:40:59 51°14.488 2°54.767 -999 0.10272 0.571321 -1.279161
2009-03-19 07:41:04 51°14.501 2°54.747 -999 0.10272 0.571321 -1.279161
2009-03-19 07:41:09 51°14.513 2°54.727 -999 0.10272 0.571352 -1.279161
2009-03-19 07:41:14 51°14.525 2°54.707 -999 0.10272 0.571352 -1.279161
2009-03-19 07:41:18 51°14.534 2°54.691 -999 0.10272 0.571352 -1.279161
2009-03-19 07:41:24 51°14.549 2°54.668 -999 0.10272 0.571352 -1.279161
2009-03-19 07:41:29 51°14.561 2°54.649 -999 0.10272 0.571352 -1.279161
2009-03-19 07:41:34 51°14.574 2°54.631 -999 0.10272 0.571362 -1.279161
2009-03-19 07:41:39 51°14.587 2°54.614 -999 0.10272 0.571383 -1.244337
2009-03-19 07:41:44 51°14.601 2°54.597 -999 0.10272 0.571393 -1.279161
2009-03-19 07:41:49 51°14.615 2°54.581 -999 0.10272 0.571393 -1.279161
2009-03-19 07:41:54 51°14.628 2°54.564 -999 0.10272 0.571403 -1.279161
2009-03-19 07:41:59 51°14.642 2°54.549 -999 0.10272 0.571403 -1.279161
2009-03-19 07:42:04 51°14.656 2°54.535 -999 0.10272 0.571414 -1.279161
2009-03-19 07:42:09 51°14.671 2°54.521 -999 0.10272 0.571424 -1.279161
2009-03-19 07:42:14 51°14.685 2°54.507 -999 0.10272 0.571424 -1.279161
2009-03-19 07:42:18 51°14.697 2°54.497 -999 0.10272 0.571434 -1.279161
2009-03-19 07:42:25 51°14.717 2°54.478 -999 0.10272 0.571434 -1.279161
2009-03-19 07:42:29 51°14.728 2°54.467 -999 0.10272 0.571465 -1.279161
2009-03-19 07:42:34 51°14.743 2°54.452 -999 0.10272 0.571455 -1.279161
2009-03-19 07:42:39 51°14.757 2°54.438 -999 0.10272 0.571475 -1.244337
2009-03-19 07:42:44 51°14.771 2°54.423 -999 0.10272 0.571475 -1.244337
2009-03-19 07:42:49 51°14.785 2°54.408 -999 0.10272 0.571486 -1.279161
2009-03-19 07:42:55 51°14.802 2°54.39 -999 0.10272 0.571496 -1.279161
2009-03-19 07:43:00 51°14.815 2°54.375 -999 0.10272 0.571506 -1.279161
2009-03-19 07:43:05 51°14.829 2°54.36 -999 0.10272 0.571516 -1.279161
2009-03-19 07:43:09 51°14.84 2°54.348 -999 0.10272 0.571516 -1.279161
2009-03-19 07:43:15 51°14.857 2°54.331 -999 0.10272 0.571537 -1.279161
2009-03-19 07:43:19 51°14.868 2°54.318 -999 0.10272 0.571537 -1.279161
2009-03-19 07:43:25 51°14.885 2°54.302 -999 0.10272 0.571537 -1.279161
2009-03-19 07:43:30 51°14.899 2°54.287 -999 0.10272 0.571537 -1.279161
2009-03-19 07:43:35 51°14.914 2°54.274 -999 0.10272 0.571547 -1.279161
2009-03-19 07:43:39 51°14.925 2°54.263 -999 0.10272 0.571547 -1.279161
2009-03-19 07:43:45 51°14.942 2°54.246 -999 0.10272 0.571557 -1.279161
2009-03-19 07:43:50 51°14.956 2°54.232 -999 0.10272 0.571557 -1.279161
2009-03-19 07:43:54 51°14.967 2°54.221 -999 0.10272 0.571568 -1.279161
2009-03-19 07:44:00 51°14.984 2°54.204 -999 0.10272 0.571568 -1.279161
2009-03-19 07:44:05 51°14.998 2°54.19 -999 0.10272 0.571568 -1.279161
2009-03-19 07:44:10 51°15.012 2°54.176 -999 0.10272 0.571578 -1.244337
2009-03-19 07:44:14 51°15.023 2°54.165 -999 0.10272 0.571578 -1.244337
2009-03-19 07:44:19 51°15.038 2°54.151 -999 0.10272 0.571599 -1.279161
2009-03-19 07:44:24 51°15.052 2°54.137 -999 0.10272 0.571609 -1.279161
2009-03-19 07:44:29 51°15.067 2°54.124 -999 0.10272 0.571609 -1.279161
2009-03-19 07:44:34 51°15.081 2°54.11 -999 0.10272 0.571619 -1.279161
2009-03-19 07:44:39 51°15.095 2°54.096 -999 0.10272 0.571629 -1.279161
2009-03-19 07:44:44 51°15.109 2°54.083 -999 0.10272 0.571619 -1.279161
2009-03-19 07:44:49 51°15.124 2°54.069 -999 0.10272 0.571619 -1.279161
2009-03-19 07:44:54 51°15.138 2°54.056 -999 0.10272 0.571629 -1.279161
2009-03-19 07:44:59 51°15.153 2°54.043 -999 0.10272 0.57164 -1.279161
2009-03-19 07:45:04 51°15.168 2°54.03 -999 0.10272 0.57165 -1.279161
2009-03-19 07:45:09 51°15.183 2°54.018 -999 0.10272 0.57165 -1.279161
2009-03-19 07:45:14 51°15.198 2°54.005 -999 0.10272 0.57166 -1.279161
2009-03-19 07:45:19 51°15.212 2°53.992 -999 0.10272 0.57166 -1.279161
2009-03-19 07:45:24 51°15.227 2°53.98 -999 0.10272 0.57167 -1.279161
2009-03-19 07:45:29 51°15.242 2°53.967 -999 0.10272 0.57167 -1.279161
2009-03-19 07:45:34 51°15.257 2°53.954 -999 0.10272 0.571681 -1.279161
2009-03-19 07:45:39 51°15.272 2°53.941 -999 0.10272 0.571681 -1.279161
2009-03-19 07:45:44 51°15.287 2°53.928 -999 0.10272 0.571681 -1.279161
2009-03-19 07:45:49 51°15.302 2°53.916 -999 0.10272 0.571691 -1.279161
2009-03-19 07:45:54 51°15.316 2°53.903 -999 0.10272 0.571691 -1.279161
2009-03-19 07:45:59 51°15.331 2°53.889 -999 0.10272 0.571701 -1.279161
2009-03-19 07:46:04 51°15.346 2°53.876 -999 0.10272 0.571701 -1.279161
2009-03-19 07:46:09 51°15.361 2°53.864 -999 0.10272 0.571701 -1.279161
2009-03-19 07:46:14 51°15.376 2°53.851 -999 0.10272 0.571701 -1.279161
2009-03-19 07:46:19 51°15.391 2°53.838 -999 0.10272 0.571712 -1.279161
2009-03-19 07:46:24 51°15.406 2°53.826 -999 0.10272 0.571722 -1.279161
2009-03-19 07:46:29 51°15.421 2°53.813 -999 0.10272 0.571732 -1.244337
2009-03-19 07:46:34 51°15.436 2°53.8 -999 0.10272 0.571732 -1.279161
2009-03-19 07:46:39 51°15.451 2°53.787 -999 0.10272 0.571732 -1.244337
2009-03-19 07:46:44 51°15.466 2°53.774 -999 0.10272 0.571742 -1.244337
2009-03-19 07:46:49 51°15.481 2°53.761 -999 0.10272 0.571742 -1.244337
2009-03-19 07:46:54 51°15.495 2°53.748 -999 0.10272 0.571742 -1.244337
2009-03-19 07:46:59 51°15.51 2°53.736 -999 0.10272 0.571742 -1.279161
2009-03-19 07:47:04 51°15.525 2°53.723 -999 0.10272 0.571753 -1.279161
2009-03-19 07:47:09 51°15.54 2°53.711 -999 0.10272 0.571753 -1.279161
2009-03-19 07:47:14 51°15.555 2°53.698 -999 0.10272 0.571763 -1.279161
2009-03-19 07:47:19 51°15.569 2°53.685 -999 0.10272 0.571763 -1.279161
2009-03-19 07:47:23 51°15.581 2°53.674 -999 0.10272 0.571763 -1.279161
2009-03-19 07:47:29 51°15.599 2°53.659 -999 0.10272 0.571783 -1.279161
2009-03-19 07:47:34 51°15.614 2°53.646 -999 0.10272 0.571783 -1.279161
2009-03-19 07:47:39 51°15.628 2°53.634 -999 0.10272 0.571783 -1.279161
2009-03-19 07:47:44 51°15.643 2°53.621 -999 0.10272 0.571783 -1.279161
2009-03-19 07:47:49 51°15.658 2°53.609 -999 0.10272 0.571783 -1.244337
2009-03-19 07:47:54 51°15.672 2°53.596 -999 0.10272 0.571794 -1.279161
2009-03-19 07:47:59 51°15.687 2°53.583 -999 0.10272 0.571794 -1.244337
2009-03-19 07:48:04 51°15.702 2°53.571 -999 0.10272 0.571794 -1.279161
2009-03-19 07:48:09 51°15.717 2°53.558 -999 0.10272 0.571804 -1.279161
2009-03-19 07:48:14 51°15.731 2°53.545 -999 0.10272 0.571804 -1.279161
2009-03-19 07:48:19 51°15.746 2°53.532 -999 0.10272 0.571814 -1.279161
2009-03-19 07:48:24 51°15.761 2°53.519 -999 0.10272 0.571814 -1.279161
2009-03-19 07:48:29 51°15.776 2°53.507 -999 0.10272 0.571814 -1.279161
2009-03-19 07:48:34 51°15.79 2°53.494 -999 0.10272 0.571825 -1.279161
2009-03-19 07:48:39 51°15.805 2°53.481 -999 0.10272 0.571835 -1.279161
2009-03-19 07:48:44 51°15.82 2°53.468 -999 0.10272 0.571835 -1.279161
2009-03-19 07:48:49 51°15.835 2°53.455 -999 0.10272 0.571835 -1.279161
2009-03-19 07:48:54 51°15.85 2°53.443 -999 0.10272 0.571845 -1.279161
2009-03-19 07:48:59 51°15.864 2°53.43 -999 0.10272 0.571845 -1.279161
2009-03-19 07:49:04 51°15.879 2°53.417 -999 0.10272 0.571845 -1.279161
2009-03-19 07:49:09 51°15.895 2°53.405 -999 0.10272 0.571855 -1.279161
2009-03-19 07:49:14 51°15.91 2°53.392 -999 0.10272 0.571855 -1.279161
2009-03-19 07:49:19 51°15.925 2°53.379 -999 0.10272 0.571855 -1.279161
2009-03-19 07:49:24 51°15.939 2°53.367 -999 0.10272 0.571866 -1.279161
2009-03-19 07:49:29 51°15.954 2°53.354 -999 0.10272 0.571866 -1.279161
2009-03-19 07:49:34 51°15.97 2°53.341 -999 0.10272 0.571876 -1.279161
2009-03-19 07:49:39 51°15.985 2°53.329 -999 0.10272 0.571876 -1.279161
2009-03-19 07:49:44 51°16 2°53.316 -999 0.10272 0.571876 -1.279161
2009-03-19 07:49:49 51°16.015 2°53.304 -999 0.10272 0.571886 -1.279161
2009-03-19 07:49:54 51°16.029 2°53.291 -999 0.10272 0.571886 -1.279161
2009-03-19 07:49:59 51°16.044 2°53.278 -999 0.10272 0.571897 -1.279161
2009-03-19 07:50:04 51°16.059 2°53.265 -999 0.10272 0.571907 -1.279161
2009-03-19 07:50:09 51°16.074 2°53.253 -999 0.10272 0.571907 -1.244337
2009-03-19 07:50:14 51°16.089 2°53.24 -999 0.10272 0.571907 -1.279161
2009-03-19 07:50:19 51°16.104 2°53.227 -999 0.10272 0.571907 -1.279161
2009-03-19 07:50:24 51°16.12 2°53.215 -999 0.10272 0.571917 -1.279161
2009-03-19 07:50:29 51°16.135 2°53.202 -999 0.10272 0.571917 -1.279161
2009-03-19 07:50:34 51°16.15 2°53.19 -999 0.10272 0.571927 -1.279161
2009-03-19 07:50:39 51°16.165 2°53.178 -999 0.10272 0.571927 -1.279161
2009-03-19 07:50:44 51°16.18 2°53.166 -999 0.10272 0.571927 -1.279161
2009-03-19 07:50:49 51°16.195 2°53.154 -999 0.10272 0.571927 -1.279161
2009-03-19 07:50:54 51°16.211 2°53.143 -999 0.10272 0.571938 -1.279161
2009-03-19 07:50:59 51°16.226 2°53.131 -999 0.10272 0.571948 -1.279161
2009-03-19 07:51:04 51°16.241 2°53.119 -999 0.10272 0.571948 -1.279161
2009-03-19 07:51:09 51°16.257 2°53.108 -999 0.10272 0.571958 -1.279161
2009-03-19 07:51:14 51°16.272 2°53.096 -999 0.10272 0.571958 -1.279161
2009-03-19 07:51:19 51°16.287 2°53.084 -999 0.10272 0.571969 -1.279161
2009-03-19 07:51:23 51°16.299 2°53.075 -999 0.10272 0.571969 -1.279161
2009-03-19 07:51:29 51°16.318 2°53.061 -999 0.10272 0.571979 -1.279161
2009-03-19 07:51:34 51°16.333 2°53.05 -999 0.10272 0.571989 -1.279161
2009-03-19 07:51:39 51°16.348 2°53.038 -999 0.10272 0.571989 -1.244337
2009-03-19 07:51:44 51°16.363 2°53.026 -999 0.10272 0.571989 -1.244337
2009-03-19 07:51:49 51°16.378 2°53.015 -999 0.10272 0.571989 -1.279161
2009-03-19 07:51:54 51°16.394 2°53.004 -999 0.10272 0.571999 -1.279161
2009-03-19 07:51:59 51°16.409 2°52.992 -999 0.10272 0.571999 -1.279161
2009-03-19 07:52:04 51°16.425 2°52.982 -999 0.10272 0.57202 -1.244337
2009-03-19 07:52:09 51°16.44 2°52.971 -999 0.10272 0.57202 -1.279161
2009-03-19 07:52:14 51°16.456 2°52.961 -999 0.10272 0.57203 -1.279161
2009-03-19 07:52:19 51°16.471 2°52.95 -999 0.10272 0.57203 -1.279161
2009-03-19 07:52:24 51°16.487 2°52.939 -999 0.10272 0.57203 -1.279161
2009-03-19 07:52:29 51°16.503 2°52.928 -999 0.10272 0.572041 -1.279161
2009-03-19 07:52:34 51°16.519 2°52.918 -999 0.10272 0.572051 -1.279161
2009-03-19 07:52:39 51°16.534 2°52.907 -999 0.10272 0.572051 -1.279161
2009-03-19 07:52:44 51°16.55 2°52.897 -999 0.10272 0.572061 -1.279161
2009-03-19 07:52:49 51°16.566 2°52.886 -999 0.10272 0.572061 -1.279161
2009-03-19 07:52:54 51°16.581 2°52.875 -999 0.10272 0.572071 -1.279161
2009-03-19 07:52:59 51°16.597 2°52.864 -999 0.10272 0.572071 -1.279161
2009-03-19 07:53:04 51°16.612 2°52.854 -999 0.10272 0.572071 -1.279161
2009-03-19 07:53:09 51°16.628 2°52.843 -999 0.10272 0.572092 -1.244337
2009-03-19 07:53:14 51°16.644 2°52.833 -999 0.10272 0.572092 -1.244337
2009-03-19 07:53:19 51°16.659 2°52.822 -999 0.10272 0.572092 -1.279161
2009-03-19 07:53:24 51°16.675 2°52.813 -999 0.10272 0.572113 -1.279161
2009-03-19 07:53:29 51°16.691 2°52.803 -999 0.10272 0.572123 -1.279161
2009-03-19 07:53:34 51°16.707 2°52.793 -999 0.10272 0.572143 -1.279161
2009-03-19 07:53:39 51°16.723 2°52.784 -999 0.10272 0.572154 -1.279161
2009-03-19 07:53:44 51°16.738 2°52.773 -999 0.10272 0.572154 -1.279161
2009-03-19 07:53:49 51°16.754 2°52.763 -999 0.10272 0.572154 -1.244337
2009-03-19 07:53:54 51°16.77 2°52.753 -999 0.10272 0.572154 -1.279161
2009-03-19 07:53:59 51°16.785 2°52.743 -999 0.10272 0.572154 -1.279161
2009-03-19 07:54:04 51°16.801 2°52.732 -999 0.10272 0.572164 -1.244337
2009-03-19 07:54:09 51°16.816 2°52.722 -999 0.10272 0.572164 -1.279161
2009-03-19 07:54:14 51°16.832 2°52.711 -999 0.10272 0.572174 -1.279161
2009-03-19 07:54:19 51°16.847 2°52.701 -999 0.10272 0.572174 -1.279161
2009-03-19 07:54:24 51°16.863 2°52.691 -999 0.10272 0.572174 -1.279161
2009-03-19 07:54:29 51°16.879 2°52.681 -999 0.10272 0.572195 -1.279161
2009-03-19 07:54:34 51°16.894 2°52.671 -999 0.10272 0.572205 -1.279161
2009-03-19 07:54:39 51°16.91 2°52.662 -999 0.10272 0.572216 -1.279161
2009-03-19 07:54:44 51°16.926 2°52.652 -999 0.10272 0.572216 -1.279161
2009-03-19 07:54:49 51°16.941 2°52.641 -999 0.10272 0.572226 -1.279161
2009-03-19 07:54:54 51°16.957 2°52.632 -999 0.10272 0.572226 -1.279161
2009-03-19 07:54:59 51°16.973 2°52.622 -999 0.10272 0.572226 -1.279161
2009-03-19 07:55:04 51°16.989 2°52.613 -999 0.10272 0.572236 -1.279161
2009-03-19 07:55:09 51°17.005 2°52.604 -999 0.10272 0.572246 -1.244337
2009-03-19 07:55:14 51°17.021 2°52.595 -999 0.10272 0.572246 -1.244337
2009-03-19 07:55:19 51°17.037 2°52.587 -999 0.10272 0.572246 -1.279161
2009-03-19 07:55:24 51°17.053 2°52.579 -999 0.10272 0.572267 -1.279161
2009-03-19 07:55:29 51°17.07 2°52.572 -999 0.10272 0.572277 -1.279161
2009-03-19 07:55:34 51°17.086 2°52.564 -999 0.10272 0.572277 -1.279161
2009-03-19 07:55:39 51°17.102 2°52.558 -999 0.10272 0.572298 -1.244337
2009-03-19 07:55:44 51°17.118 2°52.551 -999 0.10272 0.572298 -1.279161
2009-03-19 07:55:49 51°17.135 2°52.544 -999 0.10272 0.572298 -1.279161
2009-03-19 07:55:54 51°17.152 2°52.537 -999 0.10272 0.572308 -1.279161
2009-03-19 07:55:59 51°17.168 2°52.531 -999 0.10272 0.572308 -1.279161
2009-03-19 07:56:04 51°17.185 2°52.525 -999 0.10272 0.572319 -1.279161
2009-03-19 07:56:09 51°17.202 2°52.52 -999 0.102617 0.571732 -1.279161
2009-03-19 07:56:14 51°17.218 2°52.514 -999 0.102617 0.571742 -1.279161
2009-03-19 07:56:19 51°17.235 2°52.508 -999 0.102617 0.571742 -1.279161
2009-03-19 07:56:24 51°17.252 2°52.503 -999 0.102617 0.571753 -1.279161
2009-03-19 07:56:29 51°17.269 2°52.497 -999 0.102617 0.571763 -1.279161
2009-03-19 07:56:34 51°17.286 2°52.492 -999 0.102617 0.571773 -1.279161
2009-03-19 07:56:39 51°17.303 2°52.486 -999 0.102617 0.571773 -1.279161
2009-03-19 07:56:44 51°17.319 2°52.481 -999 0.102617 0.571773 -1.279161
2009-03-19 07:56:49 51°17.336 2°52.476 -999 0.102617 0.571783 -1.279161
2009-03-19 07:56:54 51°17.353 2°52.471 -999 0.102617 0.571794 -1.279161
2009-03-19 07:56:59 51°17.37 2°52.466 -999 0.102617 0.571794 -1.279161
2009-03-19 07:57:04 51°17.387 2°52.462 -999 0.102617 0.571814 -1.279161
2009-03-19 07:57:09 51°17.404 2°52.457 -999 0.102617 0.571825 -1.279161
2009-03-19 07:57:14 51°17.421 2°52.452 -999 0.102617 0.571825 -1.279161
2009-03-19 07:57:19 51°17.438 2°52.447 -999 0.102617 0.571835 -1.279161
2009-03-19 07:57:24 51°17.455 2°52.442 -999 0.102617 0.571845 -1.279161
2009-03-19 07:57:29 51°17.472 2°52.437 -999 0.102617 0.571855 -1.279161
2009-03-19 07:57:34 51°17.489 2°52.433 -999 0.102617 0.571845 -1.279161
2009-03-19 07:57:39 51°17.506 2°52.429 -999 0.102617 0.571855 -1.279161
2009-03-19 07:57:44 51°17.523 2°52.424 -999 0.102617 0.571876 -1.279161
2009-03-19 07:57:49 51°17.539 2°52.421 -999 0.102617 0.571876 -1.279161
2009-03-19 07:57:54 51°17.556 2°52.417 -999 0.102617 0.571876 -1.279161
2009-03-19 07:57:59 51°17.574 2°52.413 -999 0.102617 0.571897 -1.279161
2009-03-19 07:58:04 51°17.591 2°52.41 -999 0.102617 0.571907 -1.244337
2009-03-19 07:58:09 51°17.608 2°52.407 -999 0.102617 0.571907 -1.279161
2009-03-19 07:58:14 51°17.625 2°52.404 -999 0.102617 0.571907 -1.279161
2009-03-19 07:58:19 51°17.642 2°52.4 -999 0.102617 0.571928 -1.279161
2009-03-19 07:58:24 51°17.659 2°52.397 -999 0.102617 0.571928 -1.279161
2009-03-19 07:58:29 51°17.676 2°52.393 -999 0.102617 0.571928 -1.279161
2009-03-19 07:58:34 51°17.693 2°52.39 -999 0.102617 0.571928 -1.244337
2009-03-19 07:58:39 51°17.71 2°52.388 -999 0.102617 0.571948 -1.279161
2009-03-19 07:58:44 51°17.727 2°52.385 -999 0.102617 0.571948 -1.279161
2009-03-19 07:58:49 51°17.745 2°52.383 -999 0.102617 0.571948 -1.279161
2009-03-19 07:58:54 51°17.762 2°52.381 -999 0.102617 0.571969 -1.279161
2009-03-19 07:58:59 51°17.779 2°52.379 -999 0.102617 0.571969 -1.279161
2009-03-19 07:59:04 51°17.797 2°52.379 -999 0.102617 0.571989 -1.279161
2009-03-19 07:59:09 51°17.814 2°52.378 -999 0.102617 0.571989 -1.279161
2009-03-19 07:59:14 51°17.831 2°52.378 -999 0.102617 0.572 -1.279161
2009-03-19 07:59:19 51°17.849 2°52.378 -999 0.102617 0.572 -1.279161
2009-03-19 07:59:24 51°17.866 2°52.378 -999 0.102617 0.57201 -1.279161
2009-03-19 07:59:29 51°17.883 2°52.379 -999 0.102617 0.57201 -1.279161
2009-03-19 07:59:34 51°17.901 2°52.379 -999 0.102617 0.57202 -1.244337
2009-03-19 07:59:39 51°17.918 2°52.38 -999 0.102617 0.572031 -1.279161
2009-03-19 07:59:44 51°17.935 2°52.38 -999 0.102617 0.572051 -1.279161
2009-03-19 07:59:49 51°17.952 2°52.381 -999 0.102617 0.572051 -1.279161
2009-03-19 07:59:54 51°17.97 2°52.381 -999 0.102617 0.572061 -1.279161
2009-03-19 07:59:59 51°17.987 2°52.382 -999 0.102617 0.572072 -1.279161
2009-03-19 08:00:04 51°18.005 2°52.383 -999 0.102617 0.572082 -1.279161
2009-03-19 08:00:09 51°18.022 2°52.383 -999 0.102617 0.572092 -1.279161
2009-03-19 08:00:14 51°18.039 2°52.383 -999 0.102617 0.572092 -1.279161
2009-03-19 08:00:19 51°18.057 2°52.384 -999 0.102617 0.572092 -1.279161
2009-03-19 08:00:24 51°18.074 2°52.385 -999 0.102617 0.572103 -1.279161
2009-03-19 08:00:29 51°18.091 2°52.385 -999 0.102617 0.572113 -1.279161
2009-03-19 08:00:34 51°18.108 2°52.386 -999 0.102617 0.572123 -1.279161
2009-03-19 08:00:39 51°18.126 2°52.386 -999 0.102617 0.572134 -1.279161
2009-03-19 08:00:44 51°18.143 2°52.386 -999 0.102617 0.572134 -1.279161
2009-03-19 08:00:49 51°18.16 2°52.386 -999 0.102617 0.572134 -1.279161
2009-03-19 08:00:54 51°18.177 2°52.386 -999 0.102617 0.572134 -1.279161
2009-03-19 08:00:59 51°18.195 2°52.388 -999 0.102617 0.572154 -1.279161
2009-03-19 08:01:04 51°18.212 2°52.388 -999 0.102617 0.572154 -1.279161
2009-03-19 08:01:09 51°18.229 2°52.388 -999 0.102617 0.572165 -1.279161
2009-03-19 08:01:14 51°18.246 2°52.388 -999 0.102617 0.572185 -1.279161
2009-03-19 08:01:19 51°18.264 2°52.388 -999 0.102617 0.572185 -1.279161
2009-03-19 08:01:24 51°18.281 2°52.388 -999 0.102617 0.572185 -1.279161
2009-03-19 08:01:29 51°18.298 2°52.387 -999 0.102617 0.572195 -1.244337
2009-03-19 08:01:34 51°18.316 2°52.387 -999 0.102617 0.572195 -1.279161
2009-03-19 08:01:39 51°18.333 2°52.387 -999 0.102617 0.572206 -1.279161
2009-03-19 08:01:44 51°18.351 2°52.386 -999 0.102617 0.572216 -1.279161
2009-03-19 08:01:49 51°18.368 2°52.386 -999 0.102617 0.572216 -1.279161
2009-03-19 08:01:54 51°18.385 2°52.385 -999 0.102617 0.572226 -1.279161
2009-03-19 08:01:59 51°18.402 2°52.385 -999 0.102617 0.572226 -1.279161
2009-03-19 08:02:04 51°18.419 2°52.384 -999 0.102617 0.572237 -1.279161
2009-03-19 08:02:09 51°18.437 2°52.384 -999 0.102617 0.572247 -1.279161
2009-03-19 08:02:14 51°18.454 2°52.383 -999 0.102617 0.572247 -1.279161
2009-03-19 08:02:19 51°18.472 2°52.382 -999 0.102617 0.572257 -1.279161
2009-03-19 08:02:24 51°18.489 2°52.381 -999 0.102617 0.572268 -1.279161
2009-03-19 08:02:29 51°18.506 2°52.38 -999 0.102617 0.572278 -1.279161
2009-03-19 08:02:34 51°18.523 2°52.379 -999 0.102617 0.572268 -1.279161
2009-03-19 08:02:39 51°18.541 2°52.378 -999 0.102617 0.572278 -1.279161
2009-03-19 08:02:45 51°18.561 2°52.377 -999 0.102617 0.572288 -1.279161
2009-03-19 08:02:49 51°18.575 2°52.376 -999 0.102617 0.572288 -1.279161
2009-03-19 08:02:54 51°18.592 2°52.375 -999 0.102617 0.572299 -1.279161
2009-03-19 08:02:59 51°18.609 2°52.374 -999 0.102617 0.572309 -1.279161
2009-03-19 08:03:05 51°18.63 2°52.373 -999 0.102617 0.572309 -1.244337
2009-03-19 08:03:09 51°18.644 2°52.373 -999 0.102617 0.572319 -1.279161
2009-03-19 08:03:14 51°18.661 2°52.372 -999 0.102617 0.57233 -1.279161
2009-03-19 08:03:19 51°18.678 2°52.371 -999 0.102617 0.57233 -1.279161
2009-03-19 08:03:24 51°18.695 2°52.37 -999 0.102617 0.57234 -1.244337
2009-03-19 08:03:29 51°18.712 2°52.369 -999 0.102617 0.57234 -1.279161
2009-03-19 08:03:34 51°18.729 2°52.368 -999 0.102617 0.57235 -1.279161
2009-03-19 08:03:39 51°18.747 2°52.367 -999 0.102617 0.57235 -1.279161
2009-03-19 08:03:44 51°18.764 2°52.366 -999 0.102617 0.57235 -1.279161
2009-03-19 08:03:49 51°18.781 2°52.365 -999 0.102617 0.57236 -1.279161
2009-03-19 08:03:54 51°18.798 2°52.364 -999 0.102617 0.572371 -1.279161
2009-03-19 08:03:59 51°18.815 2°52.362 -999 0.102617 0.572371 -1.279161
2009-03-19 08:04:04 51°18.833 2°52.361 -999 0.102617 0.572381 -1.244337
2009-03-19 08:04:09 51°18.85 2°52.36 -999 0.102617 0.572381 -1.279161
2009-03-19 08:04:14 51°18.867 2°52.359 -999 0.102617 0.572402 -1.244337
2009-03-19 08:04:19 51°18.884 2°52.358 -999 0.102617 0.572402 -1.244337
2009-03-19 08:04:24 51°18.902 2°52.357 -999 0.102617 0.572402 -1.279161
2009-03-19 08:04:29 51°18.919 2°52.356 -999 0.102617 0.572412 -1.279161
2009-03-19 08:04:34 51°18.936 2°52.356 -999 0.102617 0.572422 -1.244337
2009-03-19 08:04:39 51°18.953 2°52.355 -999 0.102617 0.572433 -1.279161
2009-03-19 08:04:44 51°18.971 2°52.353 -999 0.102617 0.572433 -1.279161
2009-03-19 08:04:49 51°18.988 2°52.352 -999 0.102617 0.572433 -1.279161
2009-03-19 08:04:54 51°19.005 2°52.351 -999 0.102617 0.572433 -1.279161
2009-03-19 08:04:59 51°19.023 2°52.35 -999 0.102617 0.572433 -1.279161
2009-03-19 08:05:04 51°19.04 2°52.349 -999 0.102617 0.572443 -1.279161
2009-03-19 08:05:09 51°19.057 2°52.348 -999 0.102617 0.572453 -1.279161
2009-03-19 08:05:14 51°19.075 2°52.347 -999 0.102617 0.572453 -1.279161
2009-03-19 08:05:19 51°19.092 2°52.346 -999 0.102617 0.572453 -1.279161
2009-03-19 08:05:24 51°19.109 2°52.345 -999 0.102617 0.572464 -1.279161
2009-03-19 08:05:29 51°19.127 2°52.344 -999 0.102617 0.572474 -1.279161
2009-03-19 08:05:34 51°19.144 2°52.343 -999 0.102617 0.572474 -1.279161
2009-03-19 08:05:39 51°19.161 2°52.341 -999 0.102617 0.572484 -1.279161
2009-03-19 08:05:43 51°19.175 2°52.341 -999 0.102617 0.572484 -1.279161
2009-03-19 08:05:49 51°19.196 2°52.34 -999 0.102617 0.572484 -1.279161
2009-03-19 08:05:54 51°19.214 2°52.339 -999 0.102617 0.572495 -1.279161
2009-03-19 08:05:59 51°19.231 2°52.338 -999 0.102617 0.572505 -1.279161
2009-03-19 08:06:04 51°19.248 2°52.337 -999 0.102617 0.572505 -1.279161
2009-03-19 08:06:09 51°19.266 2°52.336 -999 0.102617 0.572515 -1.279161
2009-03-19 08:06:14 51°19.283 2°52.335 -999 0.102617 0.572526 -1.279161
2009-03-19 08:06:19 51°19.301 2°52.334 -999 0.102617 0.572526 -1.279161
2009-03-19 08:06:24 51°19.318 2°52.333 -999 0.102617 0.572515 -1.279161
2009-03-19 08:06:29 51°19.336 2°52.332 -999 0.102617 0.572526 -1.279161
2009-03-19 08:06:34 51°19.353 2°52.332 -999 0.102617 0.572536 -1.279161
2009-03-19 08:06:39 51°19.371 2°52.331 -999 0.102617 0.572557 -1.279161
2009-03-19 08:06:44 51°19.388 2°52.329 -999 0.102617 0.572546 -1.279161
2009-03-19 08:06:49 51°19.405 2°52.328 -999 0.102617 0.572546 -1.279161
2009-03-19 08:06:54 51°19.423 2°52.326 -999 0.102617 0.572567 -1.279161
2009-03-19 08:06:59 51°19.44 2°52.324 -999 0.102617 0.572557 -1.279161
2009-03-19 08:07:04 51°19.458 2°52.322 -999 0.102617 0.572557 -1.279161
2009-03-19 08:07:09 51°19.475 2°52.321 -999 0.102617 0.572567 -1.279161
2009-03-19 08:07:14 51°19.492 2°52.32 -999 0.102617 0.572567 -1.279161
2009-03-19 08:07:19 51°19.51 2°52.319 -999 0.102617 0.572567 -1.279161
2009-03-19 08:07:24 51°19.527 2°52.318 -999 0.102617 0.572577 -1.279161
2009-03-19 08:07:29 51°19.545 2°52.318 -999 0.102617 0.572598 -1.279161
2009-03-19 08:07:34 51°19.562 2°52.317 -999 0.102617 0.572608 -1.279161
2009-03-19 08:07:39 51°19.58 2°52.317 -999 0.102617 0.572598 -1.279161
2009-03-19 08:07:44 51°19.597 2°52.317 -999 0.102617 0.572598 -1.279161
2009-03-19 08:07:49 51°19.615 2°52.316 -999 0.102617 0.572619 -1.279161
2009-03-19 08:07:54 51°19.632 2°52.316 -999 0.102617 0.572619 -1.279161
2009-03-19 08:07:59 51°19.65 2°52.316 -999 0.102617 0.572619 -1.279161
2009-03-19 08:08:04 51°19.667 2°52.315 -999 0.102617 0.572619 -1.244337
2009-03-19 08:08:10 51°19.688 2°52.315 -999 0.102617 0.572619 -1.279161
2009-03-19 08:08:14 51°19.702 2°52.315 -999 0.102617 0.572629 -1.279161
2009-03-19 08:08:19 51°19.719 2°52.315 -999 0.102617 0.572629 -1.279161
2009-03-19 08:08:23 51°19.733 2°52.315 -999 0.102617 0.572639 -1.279161
2009-03-19 08:08:29 51°19.754 2°52.315 -999 0.102617 0.572639 -1.279161
2009-03-19 08:08:34 51°19.772 2°52.316 -999 0.102617 0.57266 -1.279161
2009-03-19 08:08:39 51°19.789 2°52.316 -999 0.102617 0.57266 -1.279161
2009-03-19 08:08:44 51°19.807 2°52.316 -999 0.102617 0.57267 -1.279161
2009-03-19 08:08:49 51°19.824 2°52.316 -999 0.102617 0.57267 -1.279161
2009-03-19 08:08:54 51°19.842 2°52.316 -999 0.102617 0.57267 -1.279161
2009-03-19 08:08:59 51°19.859 2°52.316 -999 0.102617 0.57268 -1.279161
2009-03-19 08:09:04 51°19.876 2°52.317 -999 0.102617 0.572691 -1.279161
2009-03-19 08:09:09 51°19.894 2°52.317 -999 0.102617 0.57268 -1.279161
2009-03-19 08:09:14 51°19.911 2°52.318 -999 0.102617 0.57268 -1.279161
2009-03-19 08:09:19 51°19.928 2°52.319 -999 0.102617 0.572691 -1.279161
2009-03-19 08:09:24 51°19.946 2°52.32 -999 0.102617 0.572691 -1.279161
2009-03-19 08:09:29 51°19.963 2°52.32 -999 0.102617 0.572701 -1.279161
2009-03-19 08:09:34 51°19.98 2°52.322 -999 0.102617 0.572711 -1.279161
2009-03-19 08:09:39 51°19.998 2°52.324 -999 0.102617 0.572722 -1.279161
2009-03-19 08:09:44 51°20.015 2°52.325 -999 0.102617 0.572732 -1.279161
2009-03-19 08:09:49 51°20.033 2°52.326 -999 0.102617 0.572732 -1.279161
2009-03-19 08:09:54 51°20.05 2°52.328 -999 0.102617 0.572732 -1.279161
2009-03-19 08:09:59 51°20.067 2°52.329 -999 0.102617 0.572732 -1.279161
2009-03-19 08:10:04 51°20.085 2°52.331 -999 0.102617 0.572742 -1.244337
2009-03-19 08:10:09 51°20.102 2°52.332 -999 0.102617 0.572753 -1.279161
2009-03-19 08:10:14 51°20.119 2°52.333 -999 0.102617 0.572763 -1.279161
2009-03-19 08:10:19 51°20.137 2°52.335 -999 0.102617 0.572763 -1.279161
2009-03-19 08:10:24 51°20.154 2°52.336 -999 0.102617 0.572763 -1.279161
2009-03-19 08:10:29 51°20.172 2°52.337 -999 0.102617 0.572773 -1.244337
2009-03-19 08:10:34 51°20.189 2°52.338 -999 0.102617 0.572773 -1.279161
2009-03-19 08:10:39 51°20.206 2°52.34 -999 0.102617 0.572794 -1.279161
2009-03-19 08:10:44 51°20.223 2°52.341 -999 0.102617 0.572784 -1.244337
2009-03-19 08:10:49 51°20.241 2°52.342 -999 0.102617 0.572784 -1.244337
2009-03-19 08:10:54 51°20.258 2°52.343 -999 0.102617 0.572794 -1.279161
2009-03-19 08:10:59 51°20.275 2°52.344 -999 0.102617 0.572804 -1.279161
2009-03-19 08:11:04 51°20.292 2°52.346 -999 0.102617 0.572804 -1.279161
2009-03-19 08:11:09 51°20.31 2°52.347 -999 0.102617 0.572815 -1.279161
2009-03-19 08:11:14 51°20.327 2°52.348 -999 0.102617 0.572815 -1.279161
2009-03-19 08:11:19 51°20.344 2°52.349 -999 0.102617 0.572825 -1.313985
2009-03-19 08:11:24 51°20.362 2°52.35 -999 0.102617 0.572835 -1.279161
2009-03-19 08:11:29 51°20.379 2°52.35 -999 0.102617 0.572846 -1.279161
2009-03-19 08:11:34 51°20.397 2°52.351 -999 0.102617 0.572846 -1.279161
2009-03-19 08:11:39 51°20.414 2°52.352 -999 0.102617 0.572856 -1.279161
2009-03-19 08:11:44 51°20.432 2°52.352 -999 0.102617 0.572856 -1.279161
2009-03-19 08:11:49 51°20.449 2°52.353 -999 0.102617 0.572856 -1.279161
2009-03-19 08:11:54 51°20.466 2°52.354 -999 0.102617 0.572856 -1.279161
2009-03-19 08:11:59 51°20.483 2°52.355 -999 0.102617 0.572877 -1.279161
2009-03-19 08:12:04 51°20.501 2°52.356 -999 0.102617 0.572877 -1.279161
2009-03-19 08:12:09 51°20.518 2°52.357 -999 0.102514 0.572289 -1.279161
2009-03-19 08:12:14 51°20.535 2°52.358 -999 0.102514 0.572289 -1.279161
2009-03-19 08:12:19 51°20.553 2°52.358 -999 0.102514 0.572289 -1.279161
2009-03-19 08:12:23 51°20.567 2°52.359 -999 0.102617 0.572898 -1.279161
2009-03-19 08:12:29 51°20.587 2°52.359 -999 0.102514 0.572299 -1.279161
2009-03-19 08:12:34 51°20.605 2°52.36 -999 0.102514 0.57231 -1.279161
2009-03-19 08:12:39 51°20.622 2°52.361 -999 0.102514 0.57231 -1.244337
2009-03-19 08:12:44 51°20.64 2°52.362 -999 0.102514 0.57231 -1.244337
2009-03-19 08:12:49 51°20.657 2°52.362 -999 0.102514 0.57232 -1.279161
2009-03-19 08:12:54 51°20.674 2°52.363 -999 0.102514 0.57232 -1.279161
2009-03-19 08:12:59 51°20.692 2°52.364 -999 0.102514 0.57233 -1.244337
2009-03-19 08:13:04 51°20.709 2°52.365 -999 0.102514 0.572341 -1.279161
2009-03-19 08:13:09 51°20.726 2°52.365 -999 0.102514 0.572341 -1.279161
2009-03-19 08:13:14 51°20.744 2°52.366 -999 0.102514 0.572341 -1.279161
2009-03-19 08:13:19 51°20.761 2°52.367 -999 0.102514 0.572351 -1.279161
2009-03-19 08:13:24 51°20.779 2°52.367 -999 0.102514 0.572361 -1.279161
2009-03-19 08:13:29 51°20.796 2°52.368 -999 0.102514 0.572372 -1.279161
2009-03-19 08:13:34 51°20.814 2°52.369 -999 0.102514 0.572361 -1.279161
2009-03-19 08:13:39 51°20.831 2°52.371 -999 0.102514 0.572372 -1.279161
2009-03-19 08:13:44 51°20.849 2°52.372 -999 0.102514 0.572372 -1.279161
2009-03-19 08:13:49 51°20.866 2°52.374 -999 0.102514 0.572372 -1.279161
2009-03-19 08:13:54 51°20.883 2°52.376 -999 0.102514 0.572392 -1.279161
2009-03-19 08:13:59 51°20.901 2°52.378 -999 0.102514 0.572392 -1.279161
2009-03-19 08:14:04 51°20.918 2°52.381 -999 0.102514 0.572392 -1.244337
2009-03-19 08:14:09 51°20.936 2°52.383 -999 0.102514 0.572403 -1.279161
2009-03-19 08:14:14 51°20.953 2°52.386 -999 0.102514 0.572403 -1.279161
2009-03-19 08:14:19 51°20.971 2°52.388 -999 0.102514 0.572423 -1.279161
2009-03-19 08:14:24 51°20.988 2°52.39 -999 0.102514 0.572423 -1.279161
2009-03-19 08:14:29 51°21.005 2°52.393 -999 0.102514 0.572423 -1.279161
2009-03-19 08:14:34 51°21.023 2°52.395 -999 0.102514 0.572434 -1.279161
2009-03-19 08:14:39 51°21.04 2°52.398 -999 0.102514 0.572434 -1.279161
2009-03-19 08:14:44 51°21.058 2°52.401 -999 0.102514 0.572434 -1.279161
2009-03-19 08:14:49 51°21.075 2°52.404 -999 0.102514 0.572444 -1.279161
2009-03-19 08:14:54 51°21.092 2°52.407 -999 0.102514 0.572444 -1.279161
2009-03-19 08:14:59 51°21.11 2°52.41 -999 0.102514 0.572465 -1.279161
2009-03-19 08:15:04 51°21.127 2°52.413 -999 0.102514 0.572465 -1.279161
2009-03-19 08:15:09 51°21.144 2°52.416 -999 0.102514 0.572475 -1.279161
2009-03-19 08:15:14 51°21.162 2°52.419 -999 0.102514 0.572465 -1.279161
2009-03-19 08:15:19 51°21.179 2°52.422 -999 0.102514 0.572465 -1.279161
2009-03-19 08:15:24 51°21.196 2°52.425 -999 0.102514 0.572475 -1.279161
2009-03-19 08:15:29 51°21.213 2°52.429 -999 0.102514 0.572485 -1.279161
2009-03-19 08:15:34 51°21.231 2°52.432 -999 0.102514 0.572496 -1.279161
2009-03-19 08:15:39 51°21.248 2°52.435 -999 0.102514 0.572496 -1.279161
2009-03-19 08:15:44 51°21.265 2°52.439 -999 0.102514 0.572506 -1.279161
2009-03-19 08:15:49 51°21.283 2°52.442 -999 0.102514 0.572506 -1.279161
2009-03-19 08:15:54 51°21.3 2°52.445 -999 0.102514 0.572516 -1.279161
2009-03-19 08:15:59 51°21.317 2°52.448 -999 0.102514 0.572506 -1.279161
2009-03-19 08:16:04 51°21.334 2°52.451 -999 0.102514 0.572527 -1.279161
2009-03-19 08:16:09 51°21.351 2°52.455 -999 0.102514 0.572527 -1.279161
2009-03-19 08:16:14 51°21.369 2°52.458 -999 0.102514 0.572527 -1.279161
2009-03-19 08:16:19 51°21.386 2°52.461 -999 0.102514 0.572527 -1.279161
2009-03-19 08:16:24 51°21.403 2°52.464 -999 0.102514 0.572537 -1.279161
2009-03-19 08:16:29 51°21.421 2°52.468 -999 0.102514 0.572537 -1.279161
2009-03-19 08:16:34 51°21.438 2°52.471 -999 0.102514 0.572537 -1.244337
2009-03-19 08:16:39 51°21.455 2°52.475 -999 0.102514 0.572558 -1.279161
2009-03-19 08:16:44 51°21.473 2°52.478 -999 0.102514 0.572558 -1.279161
2009-03-19 08:16:49 51°21.49 2°52.482 -999 0.102514 0.572558 -1.279161
2009-03-19 08:16:54 51°21.507 2°52.486 -999 0.102514 0.572568 -1.279161
2009-03-19 08:16:59 51°21.524 2°52.489 -999 0.102514 0.572568 -1.279161
2009-03-19 08:17:04 51°21.542 2°52.493 -999 0.102514 0.572578 -1.279161
2009-03-19 08:17:09 51°21.559 2°52.497 -999 0.102514 0.572578 -1.279161
2009-03-19 08:17:14 51°21.576 2°52.5 -999 0.102514 0.572589 -1.279161
2009-03-19 08:17:19 51°21.594 2°52.504 -999 0.102514 0.572589 -1.279161
2009-03-19 08:17:24 51°21.611 2°52.507 -999 0.102514 0.572589 -1.279161
2009-03-19 08:17:29 51°21.628 2°52.511 -999 0.102514 0.572599 -1.279161
2009-03-19 08:17:34 51°21.645 2°52.515 -999 0.102514 0.572599 -1.279161
2009-03-19 08:17:39 51°21.663 2°52.519 -999 0.102514 0.57262 -1.279161
2009-03-19 08:17:44 51°21.68 2°52.522 -999 0.102514 0.572609 -1.279161
2009-03-19 08:17:49 51°21.697 2°52.526 -999 0.102514 0.572609 -1.279161
2009-03-19 08:17:54 51°21.715 2°52.53 -999 0.102514 0.57262 -1.279161
2009-03-19 08:17:59 51°21.732 2°52.533 -999 0.102514 0.57263 -1.279161
2009-03-19 08:18:04 51°21.749 2°52.537 -999 0.102514 0.57263 -1.279161
2009-03-19 08:18:09 51°21.767 2°52.541 -999 0.102514 0.572641 -1.279161
2009-03-19 08:18:14 51°21.784 2°52.545 -999 0.102514 0.572641 -1.279161
2009-03-19 08:18:19 51°21.801 2°52.549 -999 0.102514 0.572641 -1.279161
2009-03-19 08:18:24 51°21.818 2°52.553 -999 0.102514 0.572651 -1.279161
2009-03-19 08:18:29 51°21.836 2°52.557 -999 0.102514 0.572661 -1.279161
2009-03-19 08:18:34 51°21.853 2°52.56 -999 0.102514 0.572651 -1.279161
2009-03-19 08:18:39 51°21.87 2°52.565 -999 0.102514 0.572672 -1.279161
2009-03-19 08:18:44 51°21.888 2°52.568 -999 0.102514 0.572661 -1.279161
2009-03-19 08:18:49 51°21.905 2°52.574 -999 0.102514 0.572661 -1.279161
2009-03-19 08:18:54 51°21.922 2°52.578 -999 0.102514 0.572682 -1.279161
2009-03-19 08:18:59 51°21.939 2°52.583 -999 0.102514 0.572682 -1.279161
2009-03-19 08:19:04 51°21.956 2°52.588 -999 0.102514 0.572692 -1.279161
2009-03-19 08:19:09 51°21.973 2°52.592 -999 0.102514 0.572713 -1.279161
2009-03-19 08:19:14 51°21.99 2°52.596 -999 0.102514 0.572713 -1.279161
2009-03-19 08:19:19 51°22.007 2°52.6 -999 0.102514 0.572713 -1.279161
2009-03-19 08:19:24 51°22.025 2°52.605 -999 0.102514 0.572703 -1.279161
2009-03-19 08:19:29 51°22.042 2°52.609 -999 0.102514 0.572713 -1.279161
2009-03-19 08:19:34 51°22.059 2°52.614 -999 0.102514 0.572703 -1.279161
2009-03-19 08:19:39 51°22.076 2°52.618 -999 0.102514 0.572713 -1.279161
2009-03-19 08:19:44 51°22.093 2°52.623 -999 0.102514 0.572713 -1.279161
2009-03-19 08:19:49 51°22.11 2°52.628 -999 0.102514 0.572734 -1.279161
2009-03-19 08:19:54 51°22.128 2°52.633 -999 0.102514 0.572734 -1.279161
2009-03-19 08:19:59 51°22.145 2°52.637 -999 0.102514 0.572744 -1.279161
2009-03-19 08:20:04 51°22.162 2°52.642 -999 0.102514 0.572754 -1.279161
2009-03-19 08:20:09 51°22.179 2°52.646 -999 0.102514 0.572754 -1.279161
2009-03-19 08:20:14 51°22.196 2°52.651 -999 0.102514 0.572754 -1.279161
2009-03-19 08:20:19 51°22.213 2°52.654 -999 0.102514 0.572765 -1.244337
2009-03-19 08:20:24 51°22.231 2°52.658 -999 0.102514 0.572775 -1.279161
2009-03-19 08:20:29 51°22.248 2°52.661 -999 0.102514 0.572775 -1.279161
2009-03-19 08:20:34 51°22.265 2°52.664 -999 0.102514 0.572775 -1.279161
2009-03-19 08:20:39 51°22.282 2°52.667 -999 0.102514 0.572775 -1.279161
2009-03-19 08:20:44 51°22.3 2°52.671 -999 0.102514 0.572775 -1.279161
2009-03-19 08:20:49 51°22.317 2°52.675 -999 0.102514 0.572775 -1.279161
2009-03-19 08:20:54 51°22.334 2°52.679 -999 0.102514 0.572785 -1.279161
2009-03-19 08:20:59 51°22.351 2°52.683 -999 0.102514 0.572796 -1.279161
2009-03-19 08:21:04 51°22.368 2°52.687 -999 0.102514 0.572806 -1.279161
2009-03-19 08:21:09 51°22.386 2°52.691 -999 0.102514 0.572816 -1.279161
2009-03-19 08:21:14 51°22.403 2°52.695 -999 0.102514 0.572816 -1.279161
2009-03-19 08:21:19 51°22.42 2°52.7 -999 0.102514 0.572816 -1.279161
2009-03-19 08:21:24 51°22.437 2°52.704 -999 0.102514 0.572827 -1.279161
2009-03-19 08:21:29 51°22.454 2°52.709 -999 0.102514 0.572837 -1.279161
2009-03-19 08:21:34 51°22.472 2°52.713 -999 0.102514 0.572827 -1.279161
2009-03-19 08:21:39 51°22.489 2°52.718 -999 0.102514 0.572847 -1.279161
2009-03-19 08:21:43 51°22.503 2°52.72 -999 0.102514 0.572847 -1.279161
2009-03-19 08:21:49 51°22.523 2°52.725 -999 0.102514 0.572858 -1.244337
2009-03-19 08:21:54 51°22.54 2°52.73 -999 0.102514 0.572847 -1.279161
2009-03-19 08:21:59 51°22.557 2°52.734 -999 0.102514 0.572868 -1.279161
2009-03-19 08:22:04 51°22.575 2°52.738 -999 0.102514 0.572868 -1.279161
2009-03-19 08:22:09 51°22.592 2°52.743 -999 0.102514 0.572878 -1.279161
2009-03-19 08:22:14 51°22.609 2°52.748 -999 0.102514 0.572878 -1.279161
2009-03-19 08:22:19 51°22.626 2°52.753 -999 0.102514 0.572878 -1.279161
2009-03-19 08:22:24 51°22.643 2°52.758 -999 0.102514 0.572899 -1.279161
2009-03-19 08:22:29 51°22.66 2°52.762 -999 0.102514 0.572899 -1.279161
2009-03-19 08:22:34 51°22.677 2°52.767 -999 0.102514 0.57291 -1.279161
2009-03-19 08:22:39 51°22.695 2°52.771 -999 0.102514 0.57291 -1.279161
2009-03-19 08:22:44 51°22.712 2°52.775 -999 0.102514 0.57291 -1.279161
2009-03-19 08:22:49 51°22.729 2°52.78 -999 0.102514 0.57291 -1.279161
2009-03-19 08:22:54 51°22.746 2°52.784 -999 0.102514 0.57292 -1.279161
2009-03-19 08:22:59 51°22.763 2°52.789 -999 0.102514 0.57293 -1.279161
2009-03-19 08:23:04 51°22.78 2°52.794 -999 0.102514 0.57293 -1.279161
2009-03-19 08:23:09 51°22.797 2°52.799 -999 0.102514 0.572941 -1.279161
2009-03-19 08:23:14 51°22.815 2°52.805 -999 0.102514 0.572951 -1.279161
2009-03-19 08:23:19 51°22.832 2°52.81 -999 0.102514 0.572951 -1.279161
2009-03-19 08:23:24 51°22.849 2°52.815 -999 0.102514 0.572961 -1.279161
2009-03-19 08:23:29 51°22.866 2°52.821 -999 0.102514 0.572972 -1.279161
2009-03-19 08:23:34 51°22.883 2°52.826 -999 0.102514 0.572972 -1.279161
2009-03-19 08:23:39 51°22.9 2°52.832 -999 0.102514 0.572972 -1.279161
2009-03-19 08:23:44 51°22.917 2°52.838 -999 0.102514 0.572972 -1.279161
2009-03-19 08:23:49 51°22.935 2°52.843 -999 0.102514 0.572992 -1.244337
2009-03-19 08:23:54 51°22.952 2°52.848 -999 0.102514 0.572992 -1.279161
2009-03-19 08:23:59 51°22.969 2°52.853 -999 0.102514 0.573003 -1.279161
2009-03-19 08:24:04 51°22.986 2°52.857 -999 0.102514 0.573013 -1.279161
2009-03-19 08:24:09 51°23.004 2°52.862 -999 0.102514 0.573013 -1.279161
2009-03-19 08:24:14 51°23.021 2°52.866 -999 0.102514 0.573013 -1.279161
2009-03-19 08:24:19 51°23.038 2°52.87 -999 0.102514 0.573013 -1.279161
2009-03-19 08:24:24 51°23.055 2°52.875 -999 0.102514 0.573023 -1.279161
2009-03-19 08:24:29 51°23.073 2°52.879 -999 0.102514 0.573034 -1.279161
2009-03-19 08:24:34 51°23.09 2°52.883 -999 0.102514 0.573034 -1.279161
2009-03-19 08:24:39 51°23.107 2°52.888 -999 0.102514 0.573044 -1.279161
2009-03-19 08:24:44 51°23.124 2°52.893 -999 0.102514 0.573044 -1.279161
2009-03-19 08:24:49 51°23.142 2°52.896 -999 0.102514 0.573044 -1.279161
2009-03-19 08:24:54 51°23.158 2°52.903 -999 0.102514 0.573055 -1.279161
2009-03-19 08:24:59 51°23.176 2°52.906 -999 0.102514 0.573034 -1.279161
2009-03-19 08:25:04 51°23.193 2°52.913 -999 0.102514 0.573075 -1.279161
2009-03-19 08:25:09 51°23.21 2°52.916 -999 0.102514 0.573055 -1.279161
2009-03-19 08:25:14 51°23.227 2°52.923 -999 0.102514 0.573055 -1.279161
2009-03-19 08:25:19 51°23.244 2°52.927 -999 0.102514 0.573075 -1.279161
2009-03-19 08:25:24 51°23.261 2°52.932 -999 0.102514 0.573086 -1.279161
2009-03-19 08:25:29 51°23.279 2°52.937 -999 0.102514 0.573086 -1.279161
2009-03-19 08:25:34 51°23.296 2°52.943 -999 0.102514 0.573106 -1.279161
2009-03-19 08:25:39 51°23.313 2°52.947 -999 0.102514 0.573106 -1.279161
2009-03-19 08:25:45 51°23.334 2°52.955 -999 0.102514 0.573117 -1.279161
2009-03-19 08:25:49 51°23.347 2°52.959 -999 0.102514 0.573117 -1.279161
2009-03-19 08:25:54 51°23.364 2°52.965 -999 0.102514 0.573106 -1.279161
2009-03-19 08:25:59 51°23.382 2°52.97 -999 0.102514 0.573117 -1.279161
2009-03-19 08:26:04 51°23.399 2°52.976 -999 0.102514 0.573117 -1.279161
2009-03-19 08:26:09 51°23.416 2°52.982 -999 0.102514 0.573117 -1.279161
2009-03-19 08:26:14 51°23.433 2°52.987 -999 0.102514 0.573127 -1.279161
2009-03-19 08:26:19 51°23.451 2°52.993 -999 0.102514 0.573127 -1.279161
2009-03-19 08:26:24 51°23.468 2°52.998 -999 0.102514 0.573117 -1.279161
2009-03-19 08:26:29 51°23.485 2°53.004 -999 0.102514 0.573127 -1.279161
2009-03-19 08:26:34 51°23.502 2°53.01 -999 0.102514 0.573137 -1.279161
2009-03-19 08:26:39 51°23.519 2°53.016 -999 0.102514 0.573137 -1.279161
2009-03-19 08:26:44 51°23.537 2°53.021 -999 0.102514 0.573158 -1.279161
2009-03-19 08:26:49 51°23.554 2°53.027 -999 0.102514 0.573158 -1.279161
2009-03-19 08:26:54 51°23.571 2°53.032 -999 0.102514 0.573158 -1.279161
2009-03-19 08:26:59 51°23.588 2°53.038 -999 0.102514 0.573158 -1.279161
2009-03-19 08:27:04 51°23.606 2°53.043 -999 0.102514 0.573169 -1.279161
2009-03-19 08:27:09 51°23.623 2°53.049 -999 0.102514 0.573169 -1.279161
2009-03-19 08:27:14 51°23.64 2°53.054 -999 0.102514 0.573169 -1.279161
2009-03-19 08:27:19 51°23.657 2°53.06 -999 0.102514 0.573179 -1.279161
2009-03-19 08:27:24 51°23.675 2°53.065 -999 0.102514 0.573189 -1.244337
2009-03-19 08:27:29 51°23.692 2°53.069 -999 0.102514 0.573189 -1.279161
2009-03-19 08:27:34 51°23.709 2°53.074 -999 0.102514 0.5732 -1.244337
2009-03-19 08:27:39 51°23.727 2°53.079 -999 0.102514 0.573189 -1.279161
2009-03-19 08:27:44 51°23.744 2°53.084 -999 0.102514 0.5732 -1.279161
2009-03-19 08:27:49 51°23.761 2°53.089 -999 0.102514 0.5732 -1.279161
2009-03-19 08:27:54 51°23.779 2°53.094 -999 0.102514 0.57321 -1.279161
2009-03-19 08:27:59 51°23.796 2°53.1 -999 0.102514 0.57321 -1.279161
2009-03-19 08:28:04 51°23.813 2°53.105 -999 0.102514 0.57322 -1.279161
2009-03-19 08:28:10 51°23.834 2°53.112 -999 0.102514 0.573231 -1.279161
2009-03-19 08:28:14 51°23.847 2°53.116 -999 0.102514 0.573231 -1.279161
2009-03-19 08:28:19 51°23.865 2°53.121 -999 0.102514 0.573231 -1.279161
2009-03-19 08:28:23 51°23.879 2°53.125 -999 0.102514 0.573241 -1.279161
2009-03-19 08:28:30 51°23.903 2°53.133 -999 0.102514 0.573231 -1.279161
2009-03-19 08:28:34 51°23.916 2°53.137 -999 0.102514 0.573251 -1.279161
2009-03-19 08:28:39 51°23.934 2°53.143 -999 0.102514 0.573251 -1.279161
2009-03-19 08:28:44 51°23.951 2°53.149 -999 0.102514 0.573251 -1.279161
2009-03-19 08:28:49 51°23.968 2°53.154 -999 0.102514 0.573251 -1.279161
2009-03-19 08:28:54 51°23.985 2°53.159 -999 0.102514 0.573262 -1.279161
2009-03-19 08:28:59 51°24.003 2°53.164 -999 0.102514 0.573262 -1.279161
2009-03-19 08:29:04 51°24.02 2°53.17 -999 0.102514 0.573272 -1.313985
2009-03-19 08:29:09 51°24.037 2°53.175 -999 0.102514 0.573272 -1.279161
2009-03-19 08:29:14 51°24.054 2°53.18 -999 0.102514 0.573272 -1.279161
2009-03-19 08:29:19 51°24.072 2°53.185 -999 0.102514 0.573272 -1.279161
2009-03-19 08:29:24 51°24.089 2°53.191 -999 0.102514 0.573283 -1.244337
2009-03-19 08:29:29 51°24.106 2°53.196 -999 0.102514 0.573293 -1.279161
2009-03-19 08:29:34 51°24.124 2°53.201 -999 0.102514 0.573283 -1.279161
2009-03-19 08:29:39 51°24.141 2°53.207 -999 0.102514 0.573293 -1.244337
2009-03-19 08:29:44 51°24.158 2°53.212 -999 0.102514 0.573303 -1.279161
2009-03-19 08:29:49 51°24.175 2°53.218 -999 0.102514 0.573303 -1.279161
2009-03-19 08:29:54 51°24.193 2°53.223 -999 0.102514 0.573303 -1.279161
2009-03-19 08:29:59 51°24.21 2°53.229 -999 0.102514 0.573303 -1.279161
2009-03-19 08:30:04 51°24.227 2°53.234 -999 0.102514 0.573303 -1.279161
2009-03-19 08:30:09 51°24.244 2°53.24 -999 0.102514 0.573314 -1.279161
2009-03-19 08:30:14 51°24.262 2°53.245 -999 0.102514 0.573314 -1.279161
2009-03-19 08:30:19 51°24.279 2°53.25 -999 0.102514 0.573314 -1.279161
2009-03-19 08:30:24 51°24.296 2°53.255 -999 0.102514 0.573324 -1.279161
2009-03-19 08:30:29 51°24.313 2°53.261 -999 0.102514 0.573334 -1.279161
2009-03-19 08:30:34 51°24.33 2°53.265 -999 0.102514 0.573334 -1.279161
2009-03-19 08:30:39 51°24.348 2°53.271 -999 0.102514 0.573345 -1.279161
2009-03-19 08:30:44 51°24.365 2°53.274 -999 0.102514 0.573345 -1.279161
2009-03-19 08:30:49 51°24.382 2°53.279 -999 0.102514 0.573345 -1.279161
2009-03-19 08:30:54 51°24.399 2°53.283 -999 0.102514 0.573345 -1.279161
2009-03-19 08:30:59 51°24.416 2°53.287 -999 0.102514 0.573345 -1.279161
2009-03-19 08:31:04 51°24.434 2°53.291 -999 0.102514 0.573334 -1.279161
2009-03-19 08:31:09 51°24.451 2°53.296 -999 0.102514 0.573355 -1.244337
2009-03-19 08:31:14 51°24.468 2°53.3 -999 0.102514 0.573355 -1.279161
2009-03-19 08:31:19 51°24.485 2°53.304 -999 0.102514 0.573355 -1.279161
2009-03-19 08:31:23 51°24.499 2°53.308 -999 0.102514 0.573366 -1.279161
2009-03-19 08:31:29 51°24.52 2°53.313 -999 0.102514 0.573355 -1.279161
2009-03-19 08:31:34 51°24.537 2°53.317 -999 0.102514 0.573366 -1.279161
2009-03-19 08:31:39 51°24.554 2°53.321 -999 0.102514 0.573366 -1.279161
2009-03-19 08:31:44 51°24.571 2°53.326 -999 0.102514 0.573376 -1.279161
2009-03-19 08:31:49 51°24.588 2°53.329 -999 0.102514 0.573376 -1.279161
2009-03-19 08:31:54 51°24.606 2°53.334 -999 0.102514 0.573366 -1.279161
2009-03-19 08:31:59 51°24.623 2°53.339 -999 0.102514 0.573376 -1.244337
2009-03-19 08:32:04 51°24.64 2°53.343 -999 0.102514 0.573386 -1.279161
2009-03-19 08:32:09 51°24.657 2°53.348 -999 0.102514 0.573376 -1.279161
2009-03-19 08:32:14 51°24.674 2°53.352 -999 0.102514 0.573376 -1.279161
2009-03-19 08:32:19 51°24.691 2°53.357 -999 0.102514 0.573376 -1.279161
2009-03-19 08:32:24 51°24.708 2°53.362 -999 0.102514 0.573386 -1.279161
2009-03-19 08:32:29 51°24.726 2°53.367 -999 0.102514 0.573397 -1.279161
2009-03-19 08:32:34 51°24.743 2°53.372 -999 0.102514 0.573397 -1.279161
2009-03-19 08:32:39 51°24.76 2°53.377 -999 0.102514 0.573397 -1.279161
2009-03-19 08:32:44 51°24.777 2°53.381 -999 0.102514 0.573397 -1.279161
2009-03-19 08:32:49 51°24.794 2°53.386 -999 0.102514 0.573407 -1.279161
2009-03-19 08:32:54 51°24.811 2°53.391 -999 0.102514 0.573407 -1.279161
2009-03-19 08:32:59 51°24.828 2°53.396 -999 0.102514 0.573407 -1.279161
2009-03-19 08:33:04 51°24.846 2°53.4 -999 0.102514 0.573407 -1.279161
2009-03-19 08:33:09 51°24.863 2°53.405 -999 0.102514 0.573417 -1.279161
2009-03-19 08:33:14 51°24.88 2°53.41 -999 0.102514 0.573417 -1.279161
2009-03-19 08:33:19 51°24.897 2°53.414 -999 0.102514 0.573417 -1.279161
2009-03-19 08:33:24 51°24.914 2°53.419 -999 0.102514 0.573428 -1.279161
2009-03-19 08:33:29 51°24.932 2°53.424 -999 0.102514 0.573417 -1.279161
2009-03-19 08:33:34 51°24.949 2°53.429 -999 0.102514 0.573428 -1.279161
2009-03-19 08:33:39 51°24.966 2°53.435 -999 0.102514 0.573417 -1.279161
2009-03-19 08:33:44 51°24.983 2°53.441 -999 0.102514 0.573428 -1.279161
2009-03-19 08:33:49 51°25 2°53.447 -999 0.102514 0.573428 -1.279161
2009-03-19 08:33:54 51°25.017 2°53.453 -999 0.102514 0.573438 -1.279161
2009-03-19 08:33:59 51°25.034 2°53.459 -999 0.102514 0.573438 -1.279161
2009-03-19 08:34:04 51°25.051 2°53.465 -999 0.102514 0.573448 -1.279161
2009-03-19 08:34:09 51°25.068 2°53.471 -999 0.102514 0.573438 -1.279161
2009-03-19 08:34:14 51°25.086 2°53.476 -999 0.102514 0.573438 -1.279161
2009-03-19 08:34:19 51°25.103 2°53.483 -999 0.102514 0.573448 -1.279161
2009-03-19 08:34:25 51°25.123 2°53.489 -999 0.102514 0.573459 -1.279161
2009-03-19 08:34:29 51°25.137 2°53.493 -999 0.102514 0.573459 -1.279161
2009-03-19 08:34:34 51°25.154 2°53.499 -999 0.102514 0.573459 -1.279161
2009-03-19 08:34:39 51°25.171 2°53.504 -999 0.102514 0.573469 -1.279161
2009-03-19 08:34:45 51°25.192 2°53.51 -999 0.102514 0.573469 -1.279161
2009-03-19 08:34:49 51°25.206 2°53.513 -999 0.102514 0.573469 -1.279161
2009-03-19 08:34:54 51°25.223 2°53.518 -999 0.102514 0.573469 -1.279161
2009-03-19 08:34:59 51°25.24 2°53.523 -999 0.102514 0.57348 -1.279161
2009-03-19 08:35:04 51°25.257 2°53.528 -999 0.102514 0.573469 -1.279161
2009-03-19 08:35:09 51°25.274 2°53.532 -999 0.102514 0.573469 -1.279161
2009-03-19 08:35:14 51°25.292 2°53.538 -999 0.102514 0.573469 -1.279161
2009-03-19 08:35:19 51°25.309 2°53.544 -999 0.102514 0.573469 -1.279161
2009-03-19 08:35:24 51°25.326 2°53.549 -999 0.102514 0.57349 -1.279161
2009-03-19 08:35:29 51°25.343 2°53.555 -999 0.102514 0.57349 -1.279161
2009-03-19 08:35:34 51°25.36 2°53.56 -999 0.102514 0.57349 -1.279161
2009-03-19 08:35:39 51°25.378 2°53.565 -999 0.102514 0.57349 -1.279161
2009-03-19 08:35:44 51°25.395 2°53.57 -999 0.102514 0.5735 -1.279161
2009-03-19 08:35:49 51°25.412 2°53.575 -999 0.102514 0.5735 -1.279161
2009-03-19 08:35:54 51°25.429 2°53.58 -999 0.102514 0.57349 -1.279161
2009-03-19 08:35:59 51°25.446 2°53.586 -999 0.102514 0.57349 -1.279161
2009-03-19 08:36:04 51°25.463 2°53.592 -999 0.102514 0.5735 -1.279161
2009-03-19 08:36:09 51°25.48 2°53.598 -999 0.102514 0.573521 -1.279161
2009-03-19 08:36:14 51°25.497 2°53.603 -999 0.102514 0.573521 -1.279161
2009-03-19 08:36:19 51°25.515 2°53.608 -999 0.102514 0.573511 -1.279161
2009-03-19 08:36:24 51°25.532 2°53.613 -999 0.102514 0.573532 -1.279161
2009-03-19 08:36:29 51°25.549 2°53.618 -999 0.102514 0.573521 -1.279161
2009-03-19 08:36:34 51°25.566 2°53.622 -999 0.102514 0.573521 -1.279161
2009-03-19 08:36:39 51°25.583 2°53.627 -999 0.102514 0.573521 -1.279161
2009-03-19 08:36:44 51°25.6 2°53.632 -999 0.102514 0.573521 -1.279161
2009-03-19 08:36:49 51°25.618 2°53.637 -999 0.102514 0.573521 -1.279161
2009-03-19 08:36:54 51°25.635 2°53.641 -999 0.102514 0.573532 -1.244337
2009-03-19 08:36:59 51°25.652 2°53.646 -999 0.102514 0.573532 -1.279161
2009-03-19 08:37:04 51°25.669 2°53.65 -999 0.102514 0.573542 -1.279161
2009-03-19 08:37:09 51°25.686 2°53.655 -999 0.102514 0.573542 -1.279161
2009-03-19 08:37:14 51°25.704 2°53.659 -999 0.102514 0.573542 -1.279161
2009-03-19 08:37:19 51°25.721 2°53.665 -999 0.102514 0.573542 -1.279161
2009-03-19 08:37:24 51°25.738 2°53.67 -999 0.102514 0.573542 -1.279161
2009-03-19 08:37:30 51°25.758 2°53.677 -999 0.102514 0.573552 -1.279161
2009-03-19 08:37:34 51°25.772 2°53.683 -999 0.102514 0.573573 -1.279161
2009-03-19 08:37:39 51°25.789 2°53.687 -999 0.102514 0.573573 -1.279161
2009-03-19 08:37:44 51°25.806 2°53.694 -999 0.102514 0.573583 -1.279161
2009-03-19 08:37:49 51°25.823 2°53.698 -999 0.102514 0.573583 -1.279161
2009-03-19 08:37:54 51°25.84 2°53.703 -999 0.102514 0.573594 -1.279161
2009-03-19 08:37:59 51°25.857 2°53.708 -999 0.102514 0.573594 -1.279161
2009-03-19 08:38:04 51°25.874 2°53.713 -999 0.102514 0.573604 -1.244337
2009-03-19 08:38:09 51°25.892 2°53.718 -999 0.102514 0.573615 -1.279161
2009-03-19 08:38:14 51°25.909 2°53.723 -999 0.102514 0.573615 -1.279161
2009-03-19 08:38:19 51°25.926 2°53.727 -999 0.102514 0.573635 -1.279161
2009-03-19 08:38:24 51°25.943 2°53.732 -999 0.102514 0.573635 -1.279161
2009-03-19 08:38:29 51°25.96 2°53.737 -999 0.102514 0.573666 -1.279161
2009-03-19 08:38:34 51°25.977 2°53.742 -999 0.102514 0.573666 -1.279161
2009-03-19 08:38:39 51°25.994 2°53.747 -999 0.102514 0.573687 -1.279161
2009-03-19 08:38:44 51°26.011 2°53.752 -999 0.102514 0.573708 -1.279161
2009-03-19 08:38:49 51°26.028 2°53.758 -999 0.102514 0.573708 -1.279161
2009-03-19 08:38:54 51°26.046 2°53.762 -999 0.102514 0.573718 -1.279161
2009-03-19 08:38:59 51°26.063 2°53.768 -999 0.102514 0.573729 -1.279161
2009-03-19 08:39:04 51°26.08 2°53.774 -999 0.102514 0.57375 -1.279161
2009-03-19 08:39:09 51°26.097 2°53.78 -999 0.102514 0.57377 -1.279161
2009-03-19 08:39:14 51°26.114 2°53.786 -999 0.102514 0.573781 -1.279161
2009-03-19 08:39:19 51°26.131 2°53.792 -999 0.102514 0.573781 -1.279161
2009-03-19 08:39:24 51°26.148 2°53.798 -999 0.102514 0.573802 -1.279161
2009-03-19 08:39:29 51°26.165 2°53.804 -999 0.102514 0.573833 -1.279161
2009-03-19 08:39:34 51°26.182 2°53.81 -999 0.102514 0.573853 -1.279161
2009-03-19 08:39:39 51°26.2 2°53.816 -999 0.102514 0.573874 -1.279161
2009-03-19 08:39:44 51°26.217 2°53.823 -999 0.102514 0.573874 -1.279161
2009-03-19 08:39:50 51°26.237 2°53.83 -999 0.102514 0.573895 -1.279161
2009-03-19 08:39:54 51°26.251 2°53.835 -999 0.102514 0.573916 -1.279161
2009-03-19 08:39:59 51°26.268 2°53.841 -999 0.102514 0.573937 -1.279161
2009-03-19 08:40:04 51°26.285 2°53.847 -999 0.102514 0.573957 -1.279161
2009-03-19 08:40:09 51°26.302 2°53.853 -999 0.102514 0.573978 -1.279161
2009-03-19 08:40:14 51°26.319 2°53.859 -999 0.102514 0.573999 -1.279161
2009-03-19 08:40:19 51°26.336 2°53.865 -999 0.102514 0.573999 -1.279161
2009-03-19 08:40:24 51°26.353 2°53.872 -999 0.102514 0.57402 -1.279161
2009-03-19 08:40:29 51°26.37 2°53.877 -999 0.102514 0.574041 -1.279161
2009-03-19 08:40:34 51°26.387 2°53.883 -999 0.102514 0.574072 -1.279161
2009-03-19 08:40:39 51°26.404 2°53.889 -999 0.102514 0.574093 -1.279161
2009-03-19 08:40:44 51°26.421 2°53.894 -999 0.102514 0.574113 -1.279161
2009-03-19 08:40:49 51°26.439 2°53.899 -999 0.102514 0.574113 -1.279161
2009-03-19 08:40:54 51°26.456 2°53.904 -999 0.102514 0.574134 -1.279161
2009-03-19 08:40:59 51°26.473 2°53.908 -999 0.102514 0.574155 -1.279161
2009-03-19 08:41:04 51°26.49 2°53.913 -999 0.102514 0.574165 -1.279161
2009-03-19 08:41:09 51°26.507 2°53.918 -999 0.102514 0.574186 -1.279161
2009-03-19 08:41:14 51°26.524 2°53.922 -999 0.102514 0.574207 -1.279161
2009-03-19 08:41:19 51°26.541 2°53.927 -999 0.102514 0.574207 -1.279161
2009-03-19 08:41:24 51°26.559 2°53.931 -999 0.102514 0.574228 -1.279161
2009-03-19 08:41:29 51°26.576 2°53.936 -999 0.102514 0.574259 -1.279161
2009-03-19 08:41:34 51°26.593 2°53.94 -999 0.102514 0.57428 -1.279161
2009-03-19 08:41:39 51°26.61 2°53.945 -999 0.102514 0.57429 -1.279161
2009-03-19 08:41:44 51°26.627 2°53.949 -999 0.102514 0.57429 -1.279161
2009-03-19 08:41:49 51°26.644 2°53.955 -999 0.102514 0.574311 -1.279161
2009-03-19 08:41:54 51°26.661 2°53.96 -999 0.102514 0.574322 -1.279161
2009-03-19 08:41:59 51°26.679 2°53.966 -999 0.102411 0.573753 -1.279161
2009-03-19 08:42:04 51°26.696 2°53.971 -999 0.102411 0.573763 -1.279161
2009-03-19 08:42:09 51°26.713 2°53.977 -999 0.102514 0.574394 -1.279161
2009-03-19 08:42:14 51°26.73 2°53.983 -999 0.102411 0.573815 -1.279161
2009-03-19 08:42:19 51°26.747 2°53.989 -999 0.102411 0.573815 -1.279161
2009-03-19 08:42:24 51°26.764 2°53.995 -999 0.102411 0.573836 -1.279161
2009-03-19 08:42:29 51°26.781 2°54.001 -999 0.102411 0.573867 -1.279161
2009-03-19 08:42:34 51°26.798 2°54.006 -999 0.102411 0.573877 -1.279161
2009-03-19 08:42:39 51°26.815 2°54.011 -999 0.102411 0.573898 -1.279161
2009-03-19 08:42:43 51°26.829 2°54.014 -999 0.102411 0.573919 -1.279161
2009-03-19 08:42:49 51°26.85 2°54.02 -999 0.102411 0.573919 -1.279161
2009-03-19 08:42:54 51°26.867 2°54.024 -999 0.102411 0.57394 -1.279161
2009-03-19 08:42:59 51°26.884 2°54.029 -999 0.102411 0.573961 -1.244337
2009-03-19 08:43:04 51°26.901 2°54.033 -999 0.102411 0.573982 -1.279161
2009-03-19 08:43:09 51°26.919 2°54.037 -999 0.102411 0.574002 -1.279161
2009-03-19 08:43:14 51°26.936 2°54.042 -999 0.102411 0.574002 -1.279161
2009-03-19 08:43:19 51°26.953 2°54.047 -999 0.102411 0.574023 -1.279161
2009-03-19 08:43:24 51°26.97 2°54.051 -999 0.102411 0.574044 -1.279161
2009-03-19 08:43:29 51°26.987 2°54.056 -999 0.102411 0.574065 -1.279161
2009-03-19 08:43:34 51°27.004 2°54.061 -999 0.102411 0.574086 -1.279161
2009-03-19 08:43:39 51°27.022 2°54.066 -999 0.102411 0.574117 -1.279161
2009-03-19 08:43:45 51°27.042 2°54.072 -999 0.102411 0.574138 -1.279161
2009-03-19 08:43:49 51°27.056 2°54.076 -999 0.102411 0.574138 -1.279161
2009-03-19 08:43:54 51°27.073 2°54.08 -999 0.102411 0.574159 -1.279161
2009-03-19 08:43:59 51°27.09 2°54.085 -999 0.102411 0.574179 -1.279161
2009-03-19 08:44:05 51°27.111 2°54.091 -999 0.102411 0.5742 -1.313985
2009-03-19 08:44:09 51°27.125 2°54.095 -999 0.102411 0.574221 -1.279161
2009-03-19 08:44:14 51°27.142 2°54.101 -999 0.102411 0.574252 -1.279161
2009-03-19 08:44:19 51°27.159 2°54.106 -999 0.102411 0.574252 -1.279161
2009-03-19 08:44:24 51°27.176 2°54.112 -999 0.102411 0.574284 -1.279161
2009-03-19 08:44:29 51°27.193 2°54.117 -999 0.102411 0.574315 -1.279161
2009-03-19 08:44:34 51°27.21 2°54.123 -999 0.102411 0.574346 -1.279161
2009-03-19 08:44:39 51°27.227 2°54.128 -999 0.102411 0.574367 -1.244337
2009-03-19 08:44:44 51°27.244 2°54.134 -999 0.102411 0.574398 -1.279161
2009-03-19 08:44:49 51°27.261 2°54.14 -999 0.102411 0.574398 -1.279161
2009-03-19 08:44:54 51°27.279 2°54.145 -999 0.102411 0.57443 -1.279161
2009-03-19 08:44:59 51°27.296 2°54.151 -999 0.102411 0.574451 -1.279161
2009-03-19 08:45:04 51°27.313 2°54.157 -999 0.102411 0.574492 -1.279161
2009-03-19 08:45:09 51°27.33 2°54.162 -999 0.102411 0.574524 -1.279161
2009-03-19 08:45:14 51°27.347 2°54.168 -999 0.102411 0.574524 -1.279161
2009-03-19 08:45:19 51°27.364 2°54.173 -999 0.102411 0.574576 -1.279161
2009-03-19 08:45:24 51°27.381 2°54.179 -999 0.102411 0.574597 -1.279161
2009-03-19 08:45:29 51°27.399 2°54.184 -999 0.102411 0.574638 -1.279161
2009-03-19 08:45:34 51°27.416 2°54.189 -999 0.102411 0.57468 -1.279161
2009-03-19 08:45:39 51°27.433 2°54.194 -999 0.102411 0.574711 -1.279161
2009-03-19 08:45:45 51°27.454 2°54.2 -999 0.102411 0.574743 -1.279161
2009-03-19 08:45:49 51°27.468 2°54.204 -999 0.102411 0.574743 -1.279161
2009-03-19 08:45:54 51°27.485 2°54.21 -999 0.102411 0.574785 -1.279161
2009-03-19 08:45:59 51°27.502 2°54.215 -999 0.102411 0.574816 -1.279161
2009-03-19 08:46:05 51°27.523 2°54.221 -999 0.102411 0.574858 -1.279161
2009-03-19 08:46:09 51°27.537 2°54.225 -999 0.102411 0.5749 -1.279161
2009-03-19 08:46:14 51°27.554 2°54.231 -999 0.102411 0.574952 -1.279161
2009-03-19 08:46:19 51°27.571 2°54.236 -999 0.102411 0.574952 -1.279161
2009-03-19 08:46:24 51°27.588 2°54.24 -999 0.102411 0.575004 -1.279161
2009-03-19 08:46:29 51°27.606 2°54.245 -999 0.102411 0.575035 -1.279161
2009-03-19 08:46:34 51°27.623 2°54.249 -999 0.102411 0.575088 -1.279161
2009-03-19 08:46:39 51°27.641 2°54.254 -999 0.102411 0.57515 -1.279161
2009-03-19 08:46:44 51°27.658 2°54.259 -999 0.102411 0.575192 -1.279161
2009-03-19 08:46:50 51°27.679 2°54.265 -999 0.102411 0.575192 -1.279161
2009-03-19 08:46:54 51°27.693 2°54.269 -999 0.102411 0.575255 -1.279161
2009-03-19 08:46:59 51°27.71 2°54.274 -999 0.102411 0.575318 -1.279161
2009-03-19 08:47:04 51°27.728 2°54.279 -999 0.102411 0.57537 -1.279161
2009-03-19 08:47:09 51°27.745 2°54.284 -999 0.102411 0.575433 -1.279161
2009-03-19 08:47:14 51°27.762 2°54.288 -999 0.102411 0.575465 -1.279161
2009-03-19 08:47:19 51°27.78 2°54.293 -999 0.102411 0.575465 -1.279161
2009-03-19 08:47:24 51°27.797 2°54.298 -999 0.102411 0.575506 -1.279161